GEFSMA_prec_meanprecacc_060.txt.gz
Total_Precipitation_Accumulation
0.28 0.33 0.31 0.29 0.27 0.28 0.24 0.14 0.12 0.13 0.08 0.08 0.05 0.06 0.07 0.06 0.06 0.08 0.12 0.16 0.16 0.16 0.14 0.09 0.06 0.05 0.06 0.07 0.07 0.08 0.09 0.09 0.10 0.09 0.08 0.07 0.07 0.07 0.07 0.08 0.07 0.07 0.06
0.35 0.37 0.35 0.36 0.35 0.35 0.38 0.28 0.24 0.24 0.13 0.10 0.10 0.10 0.11 0.10 0.10 0.11 0.14 0.17 0.18 0.19 0.20 0.18 0.13 0.11 0.11 0.12 0.12 0.13 0.14 0.14 0.14 0.15 0.15 0.14 0.14 0.13 0.12 0.12 0.10 0.09 0.08
0.36 0.39 0.44 0.46 0.45 0.42 0.43 0.39 0.37 0.36 0.32 0.26 0.22 0.18 0.16 0.16 0.18 0.19 0.22 0.24 0.22 0.22 0.22 0.21 0.18 0.15 0.13 0.12 0.14 0.16 0.17 0.17 0.18 0.18 0.18 0.18 0.19 0.19 0.18 0.17 0.14 0.13 0.12
0.32 0.40 0.46 0.53 0.53 0.51 0.55 0.55 0.54 0.47 0.42 0.38 0.36 0.32 0.28 0.25 0.25 0.28 0.34 0.37 0.35 0.31 0.28 0.24 0.20 0.17 0.15 0.14 0.13 0.13 0.13 0.15 0.17 0.18 0.17 0.18 0.21 0.21 0.19 0.19 0.19 0.17 0.15
0.48 0.55 0.60 0.68 0.68 0.73 0.74 0.72 0.71 0.61 0.58 0.57 0.50 0.42 0.33 0.33 0.33 0.31 0.35 0.36 0.32 0.30 0.29 0.25 0.19 0.16 0.15 0.15 0.13 0.11 0.11 0.12 0.14 0.13 0.11 0.12 0.16 0.18 0.19 0.21 0.22 0.21 0.19
0.84 0.94 0.97 0.98 0.95 0.95 0.89 0.87 0.84 0.76 0.67 0.63 0.49 0.41 0.37 0.37 0.37 0.35 0.31 0.27 0.24 0.20 0.20 0.19 0.15 0.14 0.17 0.17 0.15 0.14 0.13 0.12 0.11 0.10 0.09 0.10 0.13 0.14 0.14 0.16 0.17 0.17 0.20
1.50 1.51 1.49 1.42 1.31 1.20 1.11 1.00 0.87 0.78 0.71 0.64 0.58 0.48 0.37 0.31 0.29 0.27 0.24 0.24 0.23 0.20 0.18 0.17 0.14 0.12 0.13 0.14 0.13 0.11 0.10 0.11 0.11 0.10 0.10 0.11 0.11 0.10 0.10 0.10 0.11 0.12 0.15
2.20 2.21 2.14 2.05 1.92 1.65 1.29 1.04 0.90 0.85 0.76 0.69 0.66 0.61 0.45 0.29 0.21 0.17 0.17 0.17 0.18 0.18 0.18 0.17 0.15 0.13 0.12 0.12 0.11 0.09 0.09 0.09 0.08 0.08 0.08 0.08 0.07 0.06 0.07 0.07 0.08 0.10 0.12
2.64 2.64 2.55 2.32 1.96 1.55 1.22 1.05 0.99 0.90 0.80 0.70 0.62 0.61 0.54 0.44 0.28 0.17 0.13 0.11 0.11 0.11 0.12 0.13 0.13 0.13 0.12 0.10 0.08 0.08 0.07 0.06 0.06 0.05 0.05 0.04 0.04 0.04 0.05 0.07 0.09 0.11 0.13
2.70 2.56 2.33 1.93 1.57 1.30 1.12 1.05 0.96 0.83 0.74 0.62 0.52 0.45 0.39 0.35 0.30 0.20 0.13 0.09 0.07 0.06 0.06 0.07 0.07 0.07 0.06 0.06 0.07 0.07 0.07 0.06 0.05 0.04 0.04 0.04 0.04 0.04 0.05 0.06 0.08 0.10 0.13
2.22 1.91 1.64 1.36 1.19 1.02 0.86 0.75 0.66 0.56 0.47 0.39 0.33 0.29 0.24 0.20 0.18 0.16 0.13 0.09 0.08 0.08 0.07 0.07 0.06 0.06 0.05 0.05 0.05 0.07 0.07 0.05 0.04 0.03 0.03 0.03 0.04 0.05 0.05 0.08 0.11 0.12 0.14
1.75 1.42 1.19 1.00 0.86 0.71 0.55 0.41 0.33 0.26 0.23 0.22 0.21 0.18 0.16 0.15 0.15 0.15 0.15 0.11 0.09 0.09 0.08 0.09 0.09 0.09 0.08 0.07 0.08 0.10 0.08 0.05 0.04 0.03 0.02 0.02 0.02 0.03 0.04 0.05 0.09 0.14 0.19
1.47 1.13 0.89 0.76 0.61 0.43 0.30 0.23 0.17 0.14 0.13 0.13 0.13 0.14 0.13 0.14 0.13 0.13 0.13 0.12 0.10 0.10 0.10 0.10 0.10 0.10 0.09 0.08 0.09 0.10 0.07 0.05 0.04 0.03 0.02 0.01 0.02 0.02 0.03 0.04 0.06 0.10 0.14
1.10 0.85 0.64 0.48 0.33 0.23 0.19 0.16 0.14 0.12 0.11 0.10 0.10 0.11 0.10 0.09 0.08 0.08 0.09 0.10 0.12 0.12 0.11 0.12 0.11 0.10 0.10 0.10 0.10 0.09 0.06 0.06 0.05 0.04 0.03 0.02 0.02 0.02 0.03 0.04 0.06 0.07 0.09
0.71 0.50 0.36 0.28 0.23 0.18 0.15 0.13 0.11 0.10 0.09 0.09 0.09 0.09 0.09 0.08 0.08 0.08 0.09 0.10 0.14 0.18 0.18 0.16 0.13 0.11 0.09 0.08 0.08 0.06 0.04 0.04 0.04 0.03 0.03 0.03 0.03 0.03 0.04 0.05 0.06 0.07 0.08
0.40 0.32 0.26 0.22 0.18 0.16 0.14 0.12 0.11 0.10 0.09 0.10 0.10 0.11 0.12 0.12 0.13 0.14 0.15 0.15 0.16 0.18 0.18 0.14 0.12 0.10 0.08 0.07 0.06 0.05 0.04 0.05 0.04 0.04 0.04 0.05 0.05 0.04 0.04 0.06 0.07 0.09 0.10
0.29 0.26 0.25 0.23 0.20 0.17 0.15 0.14 0.14 0.14 0.15 0.16 0.17 0.17 0.17 0.17 0.16 0.14 0.14 0.13 0.12 0.14 0.17 0.15 0.12 0.11 0.10 0.09 0.08 0.07 0.07 0.08 0.07 0.08 0.09 0.09 0.07 0.07 0.08 0.09 0.11 0.12 0.13
0.28 0.26 0.24 0.22 0.21 0.20 0.19 0.19 0.19 0.19 0.19 0.19 0.18 0.18 0.17 0.16 0.17 0.16 0.15 0.14 0.14 0.15 0.16 0.16 0.12 0.09 0.09 0.08 0.09 0.11 0.08 0.06 0.08 0.08 0.11 0.11 0.11 0.11 0.11 0.11 0.10 0.10 0.10
0.29 0.27 0.25 0.25 0.25 0.24 0.23 0.22 0.21 0.19 0.18 0.16 0.15 0.14 0.12 0.11 0.11 0.11 0.10 0.09 0.08 0.08 0.11 0.14 0.11 0.09 0.08 0.08 0.13 0.13 0.12 0.16 0.11 0.11 0.11 0.10 0.09 0.08 0.07 0.07 0.07 0.06 0.06
0.30 0.31 0.30 0.28 0.26 0.22 0.19 0.16 0.13 0.11 0.09 0.08 0.07 0.06 0.05 0.05 0.07 0.08 0.08 0.08 0.09 0.10 0.12 0.16 0.15 0.12 0.10 0.10 0.18 0.19 0.15 0.15 0.14 0.10 0.10 0.09 0.08 0.06 0.05 0.05 0.05 0.05 0.04
0.26 0.23 0.20 0.16 0.13 0.09 0.07 0.05 0.04 0.03 0.02 0.02 0.02 0.02 0.02 0.03 0.05 0.06 0.06 0.08 0.13 0.16 0.18 0.20 0.18 0.14 0.12 0.16 0.21 0.21 0.18 0.13 0.09 0.09 0.13 0.12 0.14 0.13 0.13 0.12 0.09 0.06 0.04
0.16 0.12 0.09 0.06 0.05 0.03 0.02 0.01 0.01 0.01 0.01 0.02 0.02 0.02 0.02 0.02 0.02 0.02 0.05 0.10 0.16 0.19 0.20 0.21 0.20 0.21 0.19 0.22 0.25 0.23 0.23 0.22 0.18 0.13 0.19 0.14 0.16 0.17 0.17 0.19 0.16 0.09 0.06
0.08 0.06 0.04 0.03 0.03 0.01 0.00 0.00 0.00 0.00 0.02 0.03 0.04 0.04 0.03 0.02 0.03 0.05 0.06 0.07 0.08 0.09 0.15 0.23 0.26 0.26 0.27 0.29 0.32 0.29 0.30 0.32 0.26 0.21 0.29 0.23 0.17 0.18 0.16 0.16 0.15 0.11 0.09
0.06 0.04 0.03 0.03 0.04 0.02 0.00 0.00 0.00 0.00 0.02 0.03 0.04 0.04 0.05 0.05 0.06 0.06 0.04 0.05 0.08 0.13 0.13 0.16 0.24 0.25 0.25 0.26 0.29 0.31 0.32 0.32 0.27 0.27 0.38 0.34 0.19 0.17 0.14 0.22 0.22 0.15 0.11
0.04 0.03 0.03 0.04 0.07 0.05 0.01 0.00 0.00 0.01 0.03 0.03 0.04 0.03 0.04 0.07 0.07 0.07 0.05 0.08 0.13 0.18 0.11 0.10 0.16 0.22 0.24 0.27 0.28 0.31 0.40 0.47 0.38 0.26 0.35 0.40 0.28 0.22 0.17 0.22 0.24 0.19 0.15
0.04 0.04 0.04 0.05 0.07 0.08 0.02 0.00 0.00 0.00 0.02 0.02 0.05 0.08 0.06 0.06 0.05 0.05 0.04 0.11 0.19 0.21 0.19 0.23 0.31 0.35 0.37 0.45 0.43 0.41 0.49 0.52 0.47 0.42 0.39 0.43 0.38 0.35 0.30 0.21 0.23 0.25 0.25

GEFSMA_prec_meanprecacc_066.txt.gz
Total_Precipitation_Accumulation
0.28 0.33 0.31 0.30 0.28 0.29 0.26 0.15 0.13 0.14 0.09 0.09 0.07 0.07 0.08 0.07 0.07 0.09 0.14 0.21 0.22 0.23 0.23 0.17 0.12 0.10 0.08 0.08 0.08 0.09 0.10 0.10 0.11 0.09 0.08 0.08 0.07 0.07 0.07 0.08 0.07 0.07 0.06
0.35 0.38 0.36 0.39 0.39 0.39 0.42 0.32 0.27 0.27 0.18 0.15 0.14 0.15 0.15 0.13 0.14 0.14 0.18 0.22 0.25 0.27 0.32 0.30 0.23 0.19 0.16 0.16 0.15 0.15 0.15 0.15 0.14 0.15 0.15 0.14 0.14 0.13 0.13 0.12 0.11 0.10 0.08
0.38 0.41 0.46 0.49 0.50 0.47 0.48 0.44 0.43 0.43 0.38 0.32 0.29 0.25 0.22 0.23 0.24 0.24 0.28 0.31 0.30 0.32 0.33 0.32 0.30 0.26 0.22 0.20 0.20 0.20 0.20 0.19 0.20 0.20 0.19 0.19 0.20 0.20 0.19 0.18 0.16 0.14 0.14
0.37 0.45 0.50 0.57 0.59 0.56 0.59 0.60 0.60 0.55 0.49 0.44 0.43 0.40 0.36 0.32 0.31 0.34 0.40 0.46 0.46 0.41 0.37 0.35 0.33 0.31 0.29 0.27 0.24 0.22 0.20 0.21 0.21 0.21 0.20 0.20 0.23 0.23 0.22 0.21 0.21 0.19 0.17
0.54 0.61 0.66 0.76 0.76 0.81 0.81 0.79 0.78 0.68 0.65 0.63 0.57 0.50 0.41 0.39 0.40 0.38 0.42 0.43 0.42 0.40 0.39 0.38 0.35 0.32 0.31 0.30 0.28 0.27 0.25 0.25 0.24 0.20 0.17 0.17 0.21 0.23 0.22 0.23 0.24 0.23 0.21
0.93 1.04 1.10 1.13 1.09 1.08 1.03 1.00 0.95 0.86 0.75 0.71 0.57 0.49 0.45 0.44 0.44 0.43 0.39 0.35 0.33 0.31 0.31 0.30 0.27 0.27 0.32 0.32 0.32 0.34 0.35 0.34 0.29 0.24 0.19 0.20 0.22 0.20 0.18 0.19 0.20 0.19 0.21
1.71 1.73 1.74 1.64 1.50 1.38 1.28 1.17 1.01 0.89 0.80 0.72 0.65 0.54 0.42 0.35 0.33 0.32 0.31 0.32 0.33 0.32 0.29 0.29 0.26 0.24 0.27 0.32 0.32 0.34 0.36 0.37 0.34 0.31 0.27 0.23 0.19 0.16 0.14 0.13 0.13 0.14 0.17
2.54 2.54 2.46 2.33 2.18 1.89 1.50 1.22 1.05 0.96 0.86 0.79 0.75 0.68 0.50 0.33 0.24 0.21 0.22 0.25 0.27 0.29 0.29 0.27 0.24 0.23 0.24 0.26 0.27 0.31 0.32 0.35 0.36 0.36 0.32 0.28 0.22 0.17 0.14 0.13 0.13 0.13 0.15
3.03 3.06 2.97 2.70 2.30 1.83 1.44 1.22 1.14 1.04 0.92 0.82 0.74 0.71 0.61 0.48 0.31 0.20 0.16 0.16 0.17 0.18 0.19 0.21 0.21 0.22 0.23 0.23 0.25 0.30 0.33 0.34 0.38 0.38 0.32 0.24 0.20 0.16 0.13 0.12 0.12 0.14 0.16
3.05 2.91 2.70 2.28 1.85 1.52 1.31 1.21 1.10 0.94 0.84 0.70 0.62 0.54 0.48 0.41 0.35 0.24 0.17 0.13 0.11 0.10 0.12 0.13 0.14 0.15 0.16 0.17 0.21 0.25 0.28 0.29 0.31 0.31 0.27 0.21 0.17 0.15 0.13 0.13 0.13 0.14 0.17
2.53 2.21 1.91 1.60 1.40 1.22 1.04 0.89 0.78 0.66 0.56 0.46 0.39 0.35 0.31 0.26 0.24 0.22 0.19 0.14 0.13 0.12 0.12 0.13 0.14 0.14 0.14 0.16 0.20 0.26 0.29 0.26 0.25 0.23 0.20 0.18 0.17 0.16 0.14 0.15 0.16 0.16 0.17
2.02 1.67 1.43 1.21 1.03 0.86 0.67 0.53 0.43 0.37 0.33 0.31 0.27 0.24 0.21 0.20 0.20 0.21 0.22 0.19 0.16 0.16 0.15 0.15 0.16 0.17 0.18 0.20 0.25 0.33 0.28 0.25 0.23 0.21 0.18 0.15 0.13 0.12 0.11 0.12 0.15 0.18 0.23
1.74 1.39 1.14 0.95 0.76 0.57 0.42 0.33 0.26 0.21 0.18 0.17 0.17 0.17 0.16 0.16 0.16 0.17 0.17 0.16 0.15 0.15 0.16 0.17 0.17 0.18 0.19 0.21 0.26 0.31 0.23 0.21 0.18 0.16 0.14 0.13 0.12 0.11 0.11 0.11 0.12 0.15 0.19
1.36 1.09 0.82 0.60 0.42 0.31 0.25 0.21 0.18 0.16 0.13 0.12 0.12 0.12 0.12 0.11 0.10 0.10 0.12 0.14 0.16 0.17 0.16 0.18 0.18 0.18 0.20 0.22 0.28 0.28 0.18 0.20 0.17 0.16 0.14 0.12 0.10 0.10 0.10 0.10 0.11 0.12 0.13
0.88 0.65 0.45 0.33 0.26 0.21 0.17 0.15 0.13 0.11 0.10 0.10 0.10 0.10 0.10 0.09 0.09 0.09 0.10 0.12 0.17 0.22 0.23 0.21 0.20 0.19 0.19 0.19 0.23 0.17 0.13 0.16 0.15 0.13 0.12 0.11 0.10 0.09 0.09 0.09 0.10 0.10 0.10
0.46 0.37 0.30 0.24 0.19 0.17 0.15 0.13 0.12 0.10 0.09 0.10 0.10 0.11 0.12 0.12 0.14 0.15 0.16 0.16 0.17 0.21 0.23 0.21 0.19 0.18 0.18 0.17 0.19 0.14 0.13 0.15 0.12 0.11 0.11 0.11 0.11 0.10 0.09 0.10 0.11 0.12 0.12
0.31 0.28 0.26 0.24 0.20 0.17 0.16 0.15 0.15 0.14 0.15 0.16 0.17 0.17 0.18 0.18 0.18 0.16 0.16 0.15 0.14 0.17 0.21 0.21 0.18 0.17 0.18 0.18 0.17 0.16 0.15 0.15 0.13 0.14 0.14 0.14 0.12 0.10 0.10 0.12 0.13 0.14 0.14
0.29 0.27 0.25 0.23 0.22 0.21 0.20 0.19 0.19 0.19 0.19 0.19 0.19 0.18 0.18 0.17 0.18 0.17 0.17 0.16 0.16 0.17 0.19 0.19 0.16 0.14 0.13 0.13 0.14 0.16 0.13 0.11 0.12 0.12 0.14 0.13 0.13 0.13 0.12 0.11 0.11 0.10 0.10
0.30 0.28 0.26 0.26 0.25 0.24 0.23 0.22 0.21 0.20 0.18 0.16 0.15 0.14 0.13 0.12 0.12 0.11 0.10 0.09 0.09 0.09 0.12 0.15 0.13 0.11 0.10 0.11 0.15 0.16 0.15 0.18 0.13 0.13 0.12 0.11 0.10 0.09 0.08 0.07 0.07 0.06 0.06
0.30 0.31 0.30 0.28 0.26 0.23 0.19 0.16 0.13 0.11 0.09 0.08 0.07 0.06 0.05 0.05 0.07 0.08 0.08 0.08 0.09 0.11 0.13 0.16 0.16 0.14 0.13 0.12 0.20 0.21 0.17 0.17 0.15 0.10 0.11 0.09 0.08 0.06 0.05 0.05 0.05 0.05 0.04
0.27 0.23 0.20 0.16 0.13 0.09 0.07 0.05 0.04 0.03 0.03 0.02 0.02 0.02 0.02 0.03 0.05 0.06 0.06 0.08 0.13 0.16 0.18 0.20 0.19 0.15 0.13 0.17 0.22 0.22 0.19 0.14 0.09 0.09 0.13 0.12 0.14 0.13 0.13 0.12 0.09 0.06 0.04
0.16 0.12 0.09 0.06 0.05 0.03 0.02 0.01 0.01 0.01 0.01 0.02 0.02 0.02 0.02 0.02 0.02 0.02 0.05 0.10 0.16 0.19 0.20 0.21 0.20 0.21 0.19 0.22 0.25 0.23 0.23 0.22 0.18 0.13 0.19 0.14 0.16 0.17 0.17 0.19 0.16 0.09 0.06
0.08 0.06 0.04 0.03 0.03 0.01 0.00 0.00 0.00 0.00 0.02 0.03 0.04 0.04 0.03 0.02 0.03 0.05 0.06 0.07 0.08 0.09 0.15 0.23 0.26 0.26 0.27 0.29 0.32 0.29 0.30 0.32 0.26 0.21 0.29 0.23 0.17 0.18 0.16 0.16 0.15 0.11 0.09
0.06 0.04 0.03 0.03 0.04 0.02 0.00 0.00 0.00 0.00 0.02 0.03 0.04 0.04 0.05 0.05 0.06 0.06 0.04 0.05 0.08 0.13 0.13 0.16 0.24 0.25 0.25 0.26 0.30 0.31 0.32 0.33 0.27 0.27 0.38 0.34 0.19 0.17 0.14 0.22 0.22 0.15 0.11
0.04 0.03 0.03 0.04 0.07 0.05 0.01 0.00 0.00 0.01 0.03 0.03 0.04 0.03 0.04 0.07 0.07 0.07 0.05 0.08 0.13 0.18 0.12 0.10 0.16 0.22 0.25 0.28 0.29 0.31 0.41 0.47 0.38 0.26 0.35 0.40 0.28 0.22 0.17 0.22 0.24 0.19 0.15
0.04 0.04 0.04 0.05 0.07 0.08 0.02 0.00 0.00 0.01 0.02 0.02 0.05 0.08 0.06 0.06 0.05 0.05 0.04 0.11 0.19 0.21 0.20 0.24 0.31 0.35 0.37 0.45 0.44 0.42 0.49 0.53 0.48 0.42 0.39 0.43 0.38 0.35 0.30 0.21 0.23 0.25 0.25

GEFSMA_prec_meanprecacc_072.txt.gz
Total_Precipitation_Accumulation
0.29 0.33 0.32 0.31 0.29 0.30 0.27 0.17 0.15 0.15 0.10 0.11 0.09 0.08 0.10 0.07 0.08 0.10 0.16 0.23 0.27 0.32 0.38 0.36 0.28 0.21 0.18 0.16 0.15 0.15 0.13 0.12 0.12 0.11 0.10 0.10 0.09 0.09 0.09 0.09 0.08 0.08 0.07
0.37 0.39 0.38 0.41 0.41 0.41 0.45 0.36 0.31 0.30 0.22 0.20 0.18 0.19 0.18 0.16 0.16 0.17 0.21 0.25 0.28 0.32 0.41 0.45 0.40 0.35 0.32 0.27 0.24 0.22 0.21 0.19 0.18 0.18 0.19 0.18 0.17 0.15 0.15 0.14 0.13 0.11 0.10
0.42 0.44 0.50 0.55 0.56 0.53 0.55 0.51 0.49 0.48 0.44 0.39 0.36 0.31 0.27 0.27 0.27 0.29 0.33 0.37 0.36 0.37 0.40 0.42 0.45 0.44 0.41 0.41 0.39 0.33 0.31 0.27 0.26 0.26 0.25 0.24 0.24 0.23 0.22 0.20 0.18 0.16 0.15
0.40 0.50 0.56 0.66 0.69 0.67 0.69 0.69 0.68 0.62 0.57 0.52 0.51 0.47 0.41 0.38 0.34 0.38 0.45 0.52 0.54 0.50 0.47 0.45 0.45 0.46 0.46 0.47 0.44 0.40 0.37 0.34 0.32 0.31 0.30 0.28 0.29 0.29 0.26 0.25 0.25 0.23 0.20
0.60 0.67 0.76 0.87 0.90 0.95 0.95 0.90 0.88 0.77 0.75 0.73 0.66 0.57 0.47 0.43 0.45 0.42 0.46 0.49 0.49 0.50 0.49 0.48 0.47 0.45 0.48 0.50 0.48 0.48 0.47 0.45 0.43 0.38 0.32 0.29 0.30 0.31 0.30 0.30 0.30 0.27 0.23
1.01 1.14 1.21 1.25 1.22 1.22 1.16 1.14 1.09 0.97 0.85 0.81 0.64 0.54 0.50 0.48 0.48 0.46 0.42 0.39 0.38 0.35 0.36 0.36 0.39 0.40 0.47 0.50 0.53 0.57 0.60 0.59 0.54 0.47 0.41 0.36 0.35 0.32 0.28 0.27 0.26 0.24 0.26
1.84 1.86 1.88 1.79 1.65 1.53 1.43 1.31 1.14 1.00 0.89 0.80 0.74 0.61 0.47 0.39 0.37 0.35 0.34 0.36 0.37 0.36 0.34 0.35 0.35 0.34 0.39 0.46 0.49 0.52 0.56 0.60 0.63 0.61 0.56 0.50 0.42 0.35 0.30 0.27 0.25 0.24 0.26
2.72 2.72 2.64 2.52 2.35 2.05 1.65 1.34 1.17 1.06 0.95 0.88 0.84 0.77 0.56 0.39 0.29 0.24 0.26 0.28 0.31 0.33 0.33 0.33 0.31 0.32 0.33 0.38 0.40 0.43 0.46 0.54 0.61 0.66 0.67 0.64 0.56 0.50 0.44 0.39 0.36 0.35 0.33
3.26 3.30 3.21 2.92 2.48 1.99 1.58 1.35 1.27 1.16 1.02 0.92 0.84 0.81 0.71 0.57 0.38 0.25 0.21 0.20 0.21 0.21 0.22 0.25 0.26 0.28 0.30 0.32 0.34 0.40 0.45 0.49 0.56 0.61 0.61 0.57 0.55 0.53 0.51 0.50 0.48 0.45 0.41
3.32 3.18 2.96 2.51 2.07 1.71 1.47 1.37 1.23 1.04 0.93 0.79 0.69 0.62 0.57 0.51 0.44 0.33 0.23 0.17 0.14 0.13 0.14 0.16 0.17 0.19 0.22 0.25 0.29 0.35 0.39 0.41 0.45 0.47 0.47 0.46 0.47 0.49 0.52 0.53 0.52 0.50 0.48
2.76 2.45 2.15 1.84 1.65 1.44 1.21 1.03 0.89 0.74 0.63 0.53 0.46 0.42 0.38 0.33 0.30 0.28 0.24 0.18 0.17 0.15 0.15 0.16 0.16 0.18 0.19 0.22 0.27 0.35 0.39 0.37 0.36 0.35 0.33 0.34 0.36 0.38 0.41 0.45 0.49 0.50 0.50
2.24 1.87 1.64 1.41 1.21 1.01 0.81 0.63 0.51 0.44 0.40 0.37 0.34 0.31 0.27 0.26 0.24 0.26 0.27 0.22 0.19 0.18 0.17 0.17 0.18 0.20 0.21 0.24 0.31 0.41 0.35 0.33 0.33 0.32 0.31 0.31 0.32 0.34 0.36 0.39 0.45 0.50 0.55
1.96 1.58 1.31 1.11 0.88 0.67 0.52 0.41 0.33 0.27 0.23 0.22 0.21 0.20 0.19 0.20 0.20 0.20 0.21 0.19 0.18 0.17 0.17 0.18 0.20 0.20 0.21 0.24 0.31 0.38 0.29 0.29 0.27 0.26 0.26 0.27 0.28 0.29 0.32 0.35 0.38 0.42 0.45
1.57 1.25 0.95 0.70 0.51 0.38 0.31 0.26 0.22 0.20 0.17 0.15 0.14 0.14 0.13 0.12 0.12 0.12 0.14 0.16 0.19 0.19 0.18 0.19 0.19 0.20 0.22 0.26 0.33 0.34 0.24 0.27 0.26 0.24 0.24 0.22 0.22 0.23 0.26 0.28 0.29 0.30 0.30
1.04 0.78 0.57 0.41 0.32 0.26 0.20 0.17 0.15 0.13 0.11 0.11 0.11 0.11 0.11 0.11 0.10 0.10 0.11 0.14 0.19 0.23 0.24 0.22 0.21 0.21 0.22 0.22 0.29 0.22 0.18 0.23 0.22 0.20 0.20 0.19 0.19 0.19 0.21 0.22 0.23 0.25 0.25
0.54 0.44 0.36 0.29 0.24 0.19 0.16 0.14 0.13 0.11 0.10 0.10 0.10 0.11 0.13 0.13 0.14 0.15 0.16 0.16 0.18 0.21 0.24 0.22 0.20 0.20 0.21 0.20 0.23 0.18 0.17 0.21 0.18 0.17 0.17 0.18 0.17 0.17 0.17 0.18 0.21 0.23 0.22
0.37 0.33 0.29 0.26 0.23 0.20 0.17 0.15 0.15 0.15 0.15 0.16 0.17 0.17 0.18 0.18 0.18 0.16 0.16 0.15 0.14 0.17 0.21 0.22 0.20 0.19 0.20 0.21 0.20 0.19 0.18 0.19 0.18 0.18 0.19 0.18 0.16 0.15 0.16 0.17 0.18 0.18 0.18
0.32 0.29 0.27 0.24 0.22 0.21 0.21 0.20 0.20 0.19 0.19 0.19 0.19 0.18 0.18 0.17 0.18 0.17 0.17 0.16 0.16 0.18 0.20 0.20 0.18 0.15 0.16 0.16 0.16 0.17 0.15 0.13 0.15 0.15 0.16 0.15 0.15 0.15 0.15 0.14 0.12 0.11 0.11
0.32 0.29 0.27 0.27 0.26 0.25 0.23 0.22 0.21 0.20 0.18 0.16 0.15 0.14 0.13 0.12 0.12 0.11 0.10 0.09 0.09 0.09 0.13 0.16 0.15 0.13 0.12 0.13 0.17 0.18 0.17 0.21 0.15 0.14 0.14 0.12 0.12 0.10 0.09 0.07 0.07 0.07 0.06
0.32 0.32 0.31 0.29 0.26 0.23 0.19 0.16 0.13 0.11 0.09 0.08 0.07 0.06 0.05 0.05 0.07 0.08 0.08 0.08 0.09 0.11 0.13 0.17 0.17 0.15 0.14 0.13 0.22 0.23 0.19 0.20 0.17 0.11 0.12 0.10 0.09 0.06 0.05 0.05 0.05 0.05 0.04
0.27 0.24 0.20 0.16 0.13 0.10 0.07 0.05 0.04 0.03 0.03 0.02 0.02 0.02 0.02 0.03 0.05 0.06 0.06 0.08 0.13 0.17 0.18 0.21 0.19 0.16 0.14 0.19 0.24 0.24 0.21 0.17 0.13 0.11 0.16 0.15 0.17 0.18 0.17 0.14 0.10 0.06 0.04
0.16 0.12 0.09 0.07 0.05 0.03 0.02 0.01 0.01 0.01 0.01 0.02 0.02 0.02 0.02 0.02 0.02 0.02 0.05 0.10 0.16 0.19 0.20 0.22 0.21 0.22 0.21 0.25 0.27 0.25 0.25 0.26 0.22 0.17 0.22 0.18 0.19 0.21 0.20 0.22 0.17 0.09 0.06
0.08 0.06 0.05 0.03 0.03 0.01 0.00 0.00 0.00 0.00 0.02 0.03 0.04 0.04 0.03 0.02 0.03 0.05 0.06 0.07 0.09 0.09 0.15 0.23 0.28 0.28 0.30 0.32 0.35 0.32 0.34 0.35 0.31 0.25 0.33 0.28 0.21 0.22 0.18 0.17 0.15 0.11 0.09
0.06 0.05 0.03 0.03 0.04 0.02 0.00 0.00 0.00 0.01 0.03 0.04 0.04 0.04 0.05 0.06 0.06 0.06 0.04 0.05 0.09 0.13 0.14 0.16 0.25 0.27 0.27 0.28 0.32 0.33 0.35 0.36 0.33 0.33 0.41 0.39 0.23 0.21 0.17 0.24 0.23 0.15 0.11
0.05 0.04 0.03 0.05 0.07 0.05 0.01 0.00 0.00 0.01 0.03 0.03 0.04 0.03 0.04 0.07 0.07 0.07 0.06 0.10 0.16 0.20 0.12 0.10 0.16 0.22 0.25 0.28 0.29 0.33 0.44 0.53 0.46 0.34 0.40 0.44 0.33 0.25 0.20 0.25 0.26 0.19 0.15
0.05 0.04 0.04 0.05 0.07 0.08 0.02 0.00 0.00 0.01 0.02 0.03 0.05 0.08 0.06 0.06 0.05 0.05 0.05 0.12 0.21 0.23 0.21 0.25 0.33 0.37 0.40 0.47 0.45 0.44 0.54 0.59 0.54 0.50 0.46 0.47 0.43 0.39 0.34 0.25 0.26 0.27 0.27

GEFSMA_prec_meanprecacc_078.txt.gz
Total_Precipitation_Accumulation
0.36 0.43 0.40 0.38 0.33 0.34 0.31 0.21 0.18 0.17 0.11 0.11 0.09 0.09 0.10 0.08 0.09 0.11 0.20 0.26 0.28 0.33 0.41 0.42 0.36 0.29 0.29 0.26 0.22 0.21 0.19 0.18 0.17 0.15 0.14 0.12 0.11 0.11 0.11 0.11 0.10 0.09 0.08
0.49 0.52 0.50 0.52 0.49 0.49 0.52 0.41 0.34 0.33 0.25 0.22 0.20 0.20 0.20 0.18 0.18 0.20 0.26 0.29 0.30 0.34 0.43 0.49 0.47 0.46 0.44 0.39 0.34 0.30 0.28 0.26 0.23 0.24 0.23 0.21 0.20 0.18 0.18 0.17 0.15 0.13 0.11
0.58 0.59 0.63 0.66 0.65 0.63 0.67 0.64 0.60 0.55 0.49 0.43 0.39 0.33 0.30 0.29 0.30 0.32 0.37 0.42 0.40 0.41 0.43 0.47 0.51 0.53 0.51 0.52 0.52 0.46 0.41 0.37 0.35 0.34 0.33 0.31 0.30 0.28 0.26 0.24 0.22 0.20 0.19
0.59 0.69 0.75 0.79 0.80 0.77 0.82 0.84 0.82 0.72 0.66 0.58 0.56 0.51 0.46 0.43 0.39 0.42 0.49 0.57 0.61 0.59 0.57 0.51 0.51 0.53 0.56 0.58 0.59 0.58 0.54 0.50 0.48 0.45 0.42 0.38 0.39 0.38 0.33 0.31 0.31 0.28 0.26
0.83 0.90 0.97 1.05 1.03 1.07 1.07 1.00 1.01 0.89 0.87 0.83 0.71 0.63 0.52 0.48 0.50 0.47 0.51 0.54 0.57 0.60 0.62 0.60 0.54 0.52 0.56 0.61 0.61 0.64 0.64 0.63 0.61 0.55 0.49 0.45 0.46 0.45 0.42 0.40 0.39 0.36 0.32
1.33 1.41 1.40 1.41 1.37 1.39 1.32 1.27 1.23 1.09 0.99 0.94 0.73 0.64 0.57 0.54 0.55 0.53 0.49 0.47 0.46 0.44 0.45 0.47 0.52 0.51 0.53 0.57 0.62 0.69 0.74 0.75 0.72 0.66 0.62 0.58 0.55 0.49 0.45 0.45 0.43 0.40 0.39
2.21 2.22 2.12 2.00 1.85 1.72 1.59 1.46 1.29 1.13 1.03 0.95 0.88 0.74 0.57 0.46 0.45 0.44 0.43 0.44 0.46 0.44 0.42 0.42 0.41 0.40 0.46 0.52 0.54 0.59 0.67 0.75 0.79 0.80 0.77 0.70 0.61 0.56 0.52 0.50 0.48 0.46 0.46
3.05 3.07 2.92 2.74 2.56 2.24 1.82 1.50 1.32 1.22 1.09 1.04 1.00 0.94 0.71 0.53 0.41 0.32 0.34 0.36 0.39 0.40 0.38 0.36 0.35 0.36 0.39 0.44 0.47 0.50 0.54 0.63 0.73 0.81 0.81 0.77 0.71 0.67 0.64 0.61 0.59 0.57 0.56
3.57 3.63 3.50 3.17 2.71 2.18 1.74 1.52 1.42 1.31 1.18 1.08 0.99 0.98 0.88 0.75 0.54 0.36 0.30 0.27 0.28 0.27 0.26 0.28 0.30 0.33 0.35 0.37 0.40 0.47 0.53 0.57 0.67 0.75 0.74 0.71 0.70 0.68 0.68 0.66 0.65 0.65 0.65
3.54 3.44 3.22 2.75 2.29 1.91 1.64 1.51 1.38 1.19 1.08 0.92 0.82 0.73 0.70 0.67 0.60 0.44 0.32 0.24 0.21 0.17 0.18 0.19 0.21 0.23 0.26 0.29 0.35 0.41 0.44 0.47 0.52 0.55 0.55 0.55 0.57 0.61 0.66 0.70 0.70 0.70 0.72
2.94 2.64 2.34 2.04 1.83 1.61 1.37 1.17 1.02 0.86 0.74 0.62 0.56 0.51 0.48 0.46 0.44 0.40 0.33 0.26 0.22 0.20 0.20 0.20 0.20 0.21 0.22 0.25 0.29 0.39 0.43 0.40 0.40 0.40 0.39 0.40 0.42 0.45 0.49 0.56 0.63 0.68 0.71
2.39 2.05 1.83 1.59 1.40 1.18 0.95 0.76 0.61 0.52 0.47 0.45 0.42 0.39 0.36 0.34 0.32 0.33 0.32 0.26 0.22 0.21 0.20 0.19 0.20 0.22 0.23 0.26 0.32 0.43 0.37 0.34 0.35 0.35 0.34 0.34 0.37 0.40 0.44 0.51 0.59 0.68 0.75
2.11 1.73 1.45 1.24 1.02 0.79 0.62 0.51 0.41 0.33 0.29 0.26 0.25 0.25 0.24 0.24 0.23 0.25 0.25 0.22 0.20 0.19 0.19 0.20 0.21 0.22 0.23 0.26 0.32 0.40 0.30 0.30 0.28 0.28 0.29 0.30 0.32 0.35 0.39 0.44 0.49 0.55 0.61
1.70 1.40 1.08 0.80 0.59 0.46 0.39 0.33 0.29 0.26 0.21 0.19 0.18 0.17 0.16 0.15 0.13 0.14 0.17 0.18 0.21 0.21 0.20 0.21 0.21 0.21 0.23 0.26 0.34 0.36 0.25 0.28 0.26 0.25 0.25 0.25 0.25 0.27 0.30 0.33 0.36 0.38 0.40
1.13 0.89 0.68 0.53 0.42 0.33 0.26 0.23 0.21 0.18 0.15 0.14 0.13 0.13 0.13 0.12 0.12 0.12 0.13 0.16 0.21 0.26 0.27 0.24 0.23 0.22 0.22 0.23 0.30 0.23 0.19 0.24 0.22 0.21 0.21 0.20 0.21 0.22 0.24 0.26 0.29 0.31 0.32
0.62 0.52 0.45 0.38 0.33 0.28 0.24 0.20 0.17 0.15 0.13 0.13 0.12 0.12 0.13 0.14 0.15 0.16 0.17 0.18 0.19 0.23 0.26 0.23 0.21 0.20 0.21 0.21 0.24 0.18 0.18 0.22 0.18 0.18 0.18 0.19 0.18 0.18 0.18 0.21 0.24 0.26 0.26
0.40 0.36 0.33 0.30 0.27 0.24 0.22 0.20 0.19 0.17 0.17 0.18 0.18 0.18 0.19 0.19 0.18 0.17 0.16 0.16 0.15 0.18 0.23 0.23 0.21 0.20 0.21 0.22 0.21 0.19 0.19 0.20 0.19 0.19 0.19 0.18 0.17 0.16 0.17 0.19 0.20 0.21 0.21
0.34 0.32 0.29 0.27 0.25 0.24 0.23 0.22 0.21 0.21 0.20 0.21 0.20 0.19 0.18 0.17 0.18 0.18 0.17 0.17 0.17 0.19 0.21 0.21 0.18 0.16 0.16 0.16 0.17 0.18 0.15 0.14 0.15 0.15 0.16 0.16 0.15 0.16 0.16 0.15 0.14 0.13 0.12
0.35 0.32 0.29 0.28 0.27 0.26 0.24 0.22 0.21 0.20 0.18 0.17 0.16 0.15 0.13 0.12 0.12 0.11 0.11 0.10 0.09 0.10 0.13 0.16 0.15 0.13 0.12 0.13 0.18 0.18 0.17 0.21 0.15 0.15 0.14 0.13 0.12 0.11 0.09 0.08 0.08 0.08 0.07
0.34 0.34 0.32 0.30 0.27 0.23 0.20 0.16 0.14 0.12 0.10 0.08 0.07 0.06 0.05 0.05 0.07 0.08 0.08 0.08 0.09 0.11 0.13 0.17 0.17 0.15 0.14 0.14 0.23 0.25 0.21 0.21 0.18 0.12 0.12 0.11 0.09 0.07 0.06 0.06 0.06 0.05 0.05
0.28 0.25 0.21 0.17 0.13 0.10 0.08 0.06 0.04 0.04 0.03 0.02 0.02 0.02 0.02 0.03 0.05 0.06 0.06 0.08 0.13 0.17 0.18 0.21 0.20 0.18 0.16 0.21 0.26 0.26 0.23 0.19 0.16 0.13 0.18 0.19 0.20 0.21 0.21 0.16 0.10 0.06 0.04
0.16 0.12 0.09 0.07 0.05 0.03 0.02 0.02 0.01 0.01 0.02 0.02 0.02 0.03 0.02 0.03 0.02 0.02 0.05 0.10 0.16 0.19 0.20 0.23 0.23 0.25 0.25 0.27 0.29 0.27 0.28 0.29 0.28 0.22 0.26 0.23 0.23 0.26 0.26 0.25 0.18 0.09 0.06
0.09 0.07 0.05 0.03 0.03 0.01 0.00 0.00 0.00 0.01 0.02 0.03 0.04 0.05 0.03 0.02 0.03 0.05 0.06 0.07 0.09 0.10 0.15 0.23 0.30 0.31 0.33 0.35 0.37 0.35 0.37 0.39 0.37 0.31 0.38 0.35 0.26 0.26 0.21 0.17 0.15 0.11 0.09
0.07 0.05 0.04 0.04 0.04 0.02 0.00 0.00 0.00 0.01 0.03 0.04 0.04 0.05 0.05 0.06 0.06 0.06 0.05 0.06 0.11 0.14 0.14 0.16 0.26 0.29 0.28 0.29 0.33 0.36 0.39 0.42 0.43 0.42 0.47 0.46 0.29 0.26 0.21 0.26 0.23 0.15 0.11
0.06 0.05 0.04 0.05 0.07 0.06 0.01 0.00 0.00 0.01 0.03 0.04 0.04 0.03 0.04 0.07 0.07 0.07 0.07 0.12 0.18 0.22 0.12 0.10 0.16 0.22 0.25 0.28 0.29 0.34 0.48 0.59 0.54 0.42 0.45 0.50 0.39 0.31 0.26 0.30 0.27 0.19 0.15
0.06 0.05 0.04 0.05 0.07 0.08 0.02 0.00 0.00 0.01 0.03 0.04 0.06 0.08 0.06 0.06 0.05 0.05 0.06 0.15 0.23 0.25 0.23 0.27 0.35 0.39 0.41 0.48 0.45 0.45 0.59 0.65 0.61 0.57 0.50 0.52 0.48 0.45 0.42 0.31 0.30 0.29 0.28

GEFSMA_prec_meanprecacc_084.txt.gz
Total_Precipitation_Accumulation
0.38 0.46 0.43 0.40 0.35 0.36 0.34 0.24 0.22 0.21 0.14 0.16 0.13 0.12 0.13 0.11 0.12 0.16 0.24 0.32 0.34 0.40 0.48 0.49 0.42 0.36 0.36 0.32 0.29 0.27 0.26 0.25 0.23 0.20 0.18 0.16 0.14 0.14 0.13 0.13 0.12 0.11 0.09
0.53 0.59 0.57 0.57 0.54 0.55 0.60 0.49 0.42 0.41 0.30 0.28 0.28 0.27 0.23 0.22 0.23 0.25 0.33 0.36 0.37 0.40 0.48 0.55 0.54 0.53 0.52 0.46 0.40 0.36 0.34 0.33 0.31 0.31 0.30 0.27 0.25 0.22 0.21 0.20 0.18 0.16 0.14
0.71 0.72 0.78 0.80 0.76 0.75 0.81 0.82 0.72 0.65 0.57 0.49 0.45 0.39 0.34 0.34 0.35 0.37 0.42 0.48 0.47 0.46 0.48 0.52 0.57 0.59 0.59 0.59 0.59 0.53 0.49 0.45 0.43 0.41 0.39 0.38 0.36 0.34 0.32 0.29 0.26 0.24 0.23
0.84 0.94 0.97 0.98 0.95 0.92 1.00 1.05 1.00 0.84 0.75 0.67 0.64 0.57 0.51 0.48 0.44 0.47 0.55 0.65 0.70 0.67 0.64 0.59 0.58 0.61 0.62 0.65 0.66 0.66 0.63 0.59 0.57 0.53 0.50 0.46 0.47 0.45 0.40 0.37 0.37 0.34 0.32
1.15 1.21 1.28 1.31 1.26 1.26 1.25 1.17 1.14 0.99 0.95 0.91 0.82 0.72 0.61 0.57 0.58 0.54 0.59 0.63 0.67 0.71 0.72 0.68 0.63 0.60 0.63 0.69 0.68 0.71 0.72 0.71 0.69 0.64 0.57 0.52 0.53 0.53 0.50 0.49 0.47 0.43 0.38
1.73 1.76 1.70 1.66 1.63 1.63 1.51 1.43 1.38 1.20 1.08 1.01 0.82 0.75 0.68 0.64 0.65 0.63 0.59 0.57 0.55 0.54 0.55 0.58 0.63 0.61 0.62 0.64 0.68 0.76 0.82 0.85 0.82 0.75 0.71 0.68 0.66 0.60 0.53 0.52 0.50 0.47 0.47
2.64 2.62 2.51 2.34 2.15 2.01 1.83 1.67 1.46 1.27 1.13 1.05 0.99 0.84 0.66 0.55 0.57 0.55 0.54 0.55 0.55 0.52 0.51 0.52 0.50 0.48 0.52 0.58 0.59 0.65 0.73 0.84 0.89 0.89 0.87 0.80 0.70 0.63 0.59 0.57 0.55 0.53 0.53
3.49 3.53 3.39 3.14 2.90 2.54 2.10 1.74 1.52 1.37 1.21 1.15 1.09 1.03 0.80 0.61 0.50 0.40 0.44 0.48 0.50 0.50 0.47 0.45 0.43 0.44 0.45 0.50 0.52 0.56 0.60 0.68 0.82 0.93 0.93 0.85 0.78 0.73 0.69 0.67 0.64 0.63 0.62
3.91 3.98 3.90 3.56 3.07 2.51 2.02 1.76 1.64 1.49 1.35 1.23 1.11 1.08 0.96 0.82 0.61 0.42 0.37 0.35 0.36 0.36 0.35 0.35 0.35 0.37 0.39 0.40 0.42 0.49 0.55 0.59 0.71 0.81 0.80 0.75 0.74 0.73 0.72 0.72 0.71 0.70 0.71
3.86 3.73 3.53 3.09 2.61 2.20 1.90 1.75 1.61 1.40 1.30 1.15 1.04 0.90 0.81 0.75 0.67 0.51 0.37 0.30 0.26 0.22 0.21 0.22 0.23 0.25 0.27 0.30 0.35 0.42 0.46 0.48 0.54 0.57 0.58 0.58 0.60 0.65 0.70 0.75 0.76 0.76 0.78
3.20 2.85 2.56 2.28 2.09 1.86 1.60 1.40 1.24 1.07 0.92 0.80 0.73 0.68 0.63 0.59 0.54 0.48 0.39 0.31 0.27 0.24 0.22 0.21 0.21 0.22 0.23 0.26 0.30 0.40 0.44 0.41 0.41 0.41 0.40 0.41 0.44 0.48 0.52 0.60 0.67 0.73 0.77
2.62 2.23 2.00 1.77 1.60 1.37 1.13 0.96 0.85 0.74 0.64 0.59 0.55 0.50 0.48 0.46 0.43 0.42 0.38 0.31 0.27 0.24 0.22 0.21 0.22 0.23 0.24 0.27 0.33 0.44 0.37 0.35 0.35 0.35 0.35 0.35 0.37 0.41 0.46 0.53 0.62 0.71 0.81
2.36 1.94 1.60 1.40 1.18 0.97 0.81 0.69 0.60 0.52 0.46 0.39 0.35 0.33 0.31 0.31 0.30 0.31 0.30 0.27 0.24 0.22 0.21 0.21 0.22 0.23 0.24 0.27 0.33 0.41 0.31 0.30 0.29 0.28 0.29 0.31 0.33 0.36 0.40 0.45 0.50 0.57 0.64
1.82 1.52 1.16 0.88 0.68 0.54 0.47 0.44 0.43 0.40 0.34 0.30 0.26 0.24 0.21 0.18 0.17 0.17 0.19 0.21 0.24 0.25 0.22 0.22 0.22 0.23 0.24 0.27 0.35 0.36 0.25 0.29 0.27 0.26 0.25 0.25 0.26 0.28 0.31 0.34 0.36 0.39 0.42
1.20 0.94 0.73 0.59 0.48 0.40 0.33 0.29 0.29 0.27 0.24 0.23 0.21 0.19 0.17 0.16 0.14 0.14 0.14 0.17 0.22 0.27 0.28 0.24 0.23 0.22 0.23 0.24 0.30 0.23 0.19 0.24 0.23 0.21 0.21 0.21 0.21 0.22 0.25 0.27 0.29 0.32 0.33
0.67 0.56 0.48 0.41 0.37 0.33 0.29 0.26 0.23 0.20 0.18 0.17 0.15 0.15 0.15 0.15 0.15 0.16 0.17 0.18 0.19 0.23 0.26 0.23 0.22 0.21 0.22 0.21 0.25 0.18 0.18 0.22 0.18 0.18 0.18 0.19 0.18 0.18 0.19 0.21 0.25 0.27 0.28
0.44 0.39 0.35 0.32 0.29 0.26 0.23 0.22 0.21 0.19 0.19 0.20 0.19 0.19 0.20 0.19 0.19 0.17 0.17 0.16 0.16 0.18 0.23 0.23 0.21 0.20 0.21 0.22 0.21 0.19 0.19 0.20 0.19 0.19 0.19 0.19 0.17 0.16 0.17 0.19 0.20 0.21 0.21
0.36 0.33 0.30 0.28 0.26 0.24 0.23 0.23 0.22 0.21 0.21 0.21 0.20 0.19 0.19 0.17 0.19 0.18 0.18 0.17 0.17 0.19 0.21 0.21 0.19 0.16 0.16 0.16 0.17 0.18 0.15 0.14 0.15 0.15 0.16 0.16 0.15 0.16 0.16 0.15 0.14 0.13 0.12
0.36 0.33 0.30 0.29 0.27 0.26 0.24 0.23 0.22 0.20 0.18 0.17 0.16 0.15 0.13 0.12 0.12 0.12 0.11 0.10 0.10 0.10 0.13 0.16 0.15 0.13 0.12 0.13 0.18 0.18 0.17 0.21 0.15 0.15 0.14 0.13 0.12 0.11 0.09 0.08 0.08 0.08 0.07
0.35 0.35 0.33 0.30 0.27 0.24 0.20 0.16 0.14 0.12 0.10 0.08 0.07 0.06 0.05 0.05 0.07 0.08 0.08 0.08 0.09 0.11 0.13 0.18 0.17 0.15 0.14 0.14 0.23 0.25 0.21 0.21 0.18 0.12 0.12 0.11 0.09 0.07 0.06 0.06 0.06 0.05 0.05
0.29 0.25 0.21 0.17 0.13 0.10 0.08 0.06 0.04 0.04 0.03 0.02 0.02 0.02 0.02 0.03 0.05 0.06 0.06 0.08 0.13 0.17 0.18 0.21 0.20 0.18 0.16 0.21 0.26 0.26 0.23 0.20 0.16 0.13 0.18 0.19 0.20 0.21 0.21 0.16 0.10 0.06 0.04
0.17 0.12 0.09 0.07 0.05 0.03 0.02 0.02 0.01 0.01 0.02 0.02 0.02 0.03 0.02 0.03 0.02 0.02 0.05 0.10 0.16 0.19 0.20 0.23 0.23 0.25 0.25 0.28 0.30 0.27 0.28 0.29 0.28 0.22 0.26 0.24 0.23 0.26 0.26 0.25 0.18 0.09 0.06
0.09 0.07 0.05 0.03 0.03 0.02 0.00 0.00 0.00 0.01 0.02 0.04 0.04 0.05 0.03 0.02 0.03 0.05 0.06 0.07 0.09 0.10 0.15 0.23 0.30 0.31 0.33 0.36 0.38 0.35 0.37 0.39 0.38 0.32 0.39 0.36 0.27 0.26 0.21 0.17 0.15 0.11 0.09
0.08 0.06 0.04 0.04 0.04 0.02 0.00 0.00 0.00 0.01 0.03 0.04 0.04 0.05 0.05 0.06 0.06 0.06 0.05 0.06 0.11 0.14 0.14 0.16 0.26 0.29 0.28 0.29 0.34 0.37 0.40 0.42 0.43 0.42 0.47 0.47 0.30 0.26 0.21 0.26 0.23 0.15 0.11
0.07 0.05 0.04 0.05 0.07 0.06 0.01 0.00 0.00 0.01 0.03 0.04 0.04 0.03 0.04 0.07 0.07 0.07 0.07 0.12 0.18 0.22 0.12 0.10 0.16 0.22 0.25 0.28 0.29 0.34 0.49 0.61 0.56 0.43 0.46 0.50 0.40 0.32 0.26 0.30 0.27 0.19 0.15
0.07 0.05 0.05 0.05 0.07 0.08 0.02 0.00 0.00 0.01 0.03 0.04 0.06 0.08 0.06 0.06 0.05 0.05 0.06 0.15 0.23 0.25 0.23 0.27 0.35 0.39 0.41 0.48 0.45 0.45 0.59 0.66 0.63 0.58 0.50 0.52 0.49 0.46 0.42 0.31 0.30 0.29 0.28

GEFSMA_prec_meanprecacc_090.txt.gz
Total_Precipitation_Accumulation
0.48 0.52 0.46 0.43 0.38 0.39 0.35 0.25 0.23 0.21 0.15 0.17 0.14 0.12 0.13 0.12 0.13 0.17 0.27 0.36 0.38 0.46 0.56 0.57 0.50 0.43 0.43 0.39 0.36 0.35 0.32 0.33 0.30 0.26 0.24 0.22 0.20 0.19 0.17 0.17 0.16 0.14 0.13
0.65 0.68 0.65 0.65 0.62 0.61 0.64 0.50 0.43 0.42 0.31 0.29 0.29 0.29 0.25 0.23 0.24 0.27 0.35 0.40 0.41 0.44 0.54 0.62 0.62 0.61 0.60 0.55 0.49 0.43 0.42 0.42 0.40 0.39 0.37 0.34 0.31 0.28 0.27 0.26 0.23 0.21 0.18
0.80 0.83 0.90 0.91 0.88 0.88 0.90 0.88 0.77 0.69 0.60 0.51 0.46 0.41 0.36 0.36 0.37 0.40 0.46 0.51 0.50 0.50 0.52 0.57 0.63 0.68 0.68 0.68 0.71 0.66 0.58 0.53 0.50 0.48 0.46 0.44 0.43 0.41 0.38 0.36 0.32 0.31 0.30
0.96 1.10 1.15 1.14 1.11 1.09 1.16 1.20 1.12 0.94 0.82 0.72 0.68 0.60 0.55 0.52 0.48 0.52 0.60 0.71 0.75 0.72 0.69 0.65 0.65 0.67 0.69 0.73 0.76 0.77 0.72 0.67 0.65 0.61 0.58 0.54 0.55 0.53 0.47 0.43 0.42 0.39 0.37
1.31 1.38 1.45 1.49 1.46 1.49 1.49 1.42 1.36 1.15 1.07 1.01 0.90 0.81 0.69 0.65 0.64 0.60 0.65 0.68 0.72 0.75 0.76 0.71 0.67 0.65 0.70 0.76 0.75 0.79 0.81 0.79 0.75 0.69 0.63 0.59 0.60 0.59 0.55 0.53 0.51 0.47 0.43
1.94 1.99 1.91 1.88 1.85 1.87 1.76 1.69 1.65 1.44 1.27 1.19 0.97 0.87 0.79 0.75 0.74 0.70 0.66 0.62 0.60 0.58 0.58 0.61 0.66 0.65 0.67 0.70 0.74 0.82 0.88 0.91 0.88 0.81 0.77 0.74 0.72 0.65 0.57 0.56 0.53 0.50 0.51
2.92 2.90 2.78 2.61 2.41 2.25 2.09 1.95 1.78 1.60 1.41 1.29 1.17 0.96 0.75 0.63 0.65 0.63 0.61 0.61 0.60 0.57 0.56 0.56 0.54 0.52 0.56 0.61 0.62 0.67 0.77 0.89 0.95 0.96 0.93 0.84 0.73 0.66 0.61 0.60 0.58 0.56 0.57
3.81 3.86 3.69 3.45 3.24 2.87 2.42 2.05 1.83 1.71 1.53 1.42 1.31 1.19 0.89 0.68 0.56 0.45 0.49 0.53 0.54 0.55 0.52 0.49 0.47 0.47 0.48 0.52 0.54 0.57 0.61 0.71 0.87 1.00 1.01 0.90 0.80 0.75 0.71 0.69 0.67 0.66 0.65
4.14 4.24 4.17 3.85 3.39 2.84 2.34 2.08 1.94 1.80 1.65 1.52 1.35 1.27 1.09 0.88 0.65 0.46 0.40 0.38 0.40 0.38 0.37 0.37 0.37 0.39 0.41 0.42 0.43 0.50 0.56 0.61 0.74 0.85 0.84 0.78 0.76 0.75 0.75 0.74 0.74 0.73 0.73
4.07 3.97 3.79 3.36 2.90 2.51 2.22 2.06 1.90 1.69 1.61 1.46 1.33 1.12 0.97 0.85 0.73 0.55 0.41 0.32 0.28 0.24 0.23 0.23 0.24 0.26 0.29 0.31 0.36 0.43 0.47 0.49 0.55 0.58 0.60 0.60 0.62 0.67 0.72 0.77 0.78 0.78 0.80
3.40 3.08 2.78 2.49 2.30 2.09 1.86 1.67 1.52 1.36 1.20 1.08 1.01 0.93 0.82 0.73 0.63 0.54 0.45 0.36 0.31 0.27 0.24 0.23 0.23 0.23 0.24 0.27 0.31 0.41 0.44 0.42 0.42 0.41 0.41 0.42 0.45 0.49 0.54 0.61 0.69 0.75 0.79
2.76 2.40 2.23 1.99 1.79 1.57 1.34 1.18 1.06 0.97 0.90 0.86 0.81 0.73 0.67 0.62 0.57 0.54 0.48 0.38 0.32 0.29 0.26 0.24 0.24 0.25 0.26 0.29 0.35 0.46 0.38 0.35 0.35 0.35 0.35 0.35 0.38 0.41 0.46 0.53 0.62 0.72 0.82
2.49 2.09 1.77 1.58 1.37 1.16 1.02 0.91 0.82 0.73 0.68 0.65 0.63 0.58 0.52 0.49 0.46 0.45 0.42 0.36 0.33 0.30 0.27 0.26 0.25 0.25 0.26 0.29 0.35 0.43 0.32 0.31 0.29 0.29 0.29 0.31 0.33 0.36 0.40 0.45 0.51 0.57 0.64
1.92 1.65 1.28 1.00 0.83 0.69 0.62 0.59 0.58 0.57 0.53 0.50 0.47 0.44 0.39 0.36 0.34 0.33 0.33 0.33 0.36 0.34 0.29 0.27 0.26 0.25 0.26 0.29 0.37 0.38 0.26 0.30 0.27 0.26 0.26 0.25 0.26 0.28 0.31 0.34 0.37 0.39 0.42
1.26 1.03 0.82 0.68 0.58 0.51 0.44 0.40 0.40 0.37 0.37 0.39 0.39 0.36 0.33 0.30 0.28 0.27 0.26 0.27 0.31 0.35 0.33 0.28 0.25 0.24 0.23 0.25 0.32 0.23 0.19 0.24 0.23 0.21 0.21 0.21 0.21 0.23 0.25 0.27 0.29 0.32 0.34
0.72 0.63 0.55 0.50 0.45 0.41 0.37 0.35 0.32 0.28 0.27 0.29 0.30 0.30 0.28 0.26 0.26 0.25 0.24 0.23 0.23 0.26 0.29 0.25 0.22 0.22 0.23 0.22 0.25 0.18 0.19 0.22 0.19 0.18 0.18 0.19 0.19 0.18 0.19 0.21 0.25 0.27 0.28
0.49 0.46 0.42 0.39 0.36 0.33 0.30 0.28 0.26 0.24 0.24 0.27 0.28 0.29 0.30 0.28 0.25 0.21 0.20 0.19 0.19 0.20 0.25 0.25 0.22 0.21 0.22 0.22 0.22 0.19 0.19 0.20 0.19 0.19 0.19 0.19 0.17 0.16 0.17 0.19 0.20 0.21 0.22
0.42 0.39 0.36 0.33 0.31 0.30 0.29 0.28 0.26 0.24 0.24 0.25 0.25 0.24 0.23 0.22 0.21 0.20 0.19 0.18 0.18 0.20 0.22 0.23 0.20 0.17 0.16 0.16 0.17 0.19 0.15 0.14 0.15 0.15 0.16 0.16 0.15 0.16 0.16 0.15 0.14 0.13 0.12
0.41 0.38 0.34 0.33 0.31 0.29 0.27 0.26 0.25 0.23 0.21 0.19 0.18 0.17 0.15 0.13 0.13 0.12 0.11 0.10 0.10 0.10 0.14 0.17 0.16 0.14 0.12 0.13 0.18 0.19 0.17 0.21 0.15 0.15 0.14 0.13 0.12 0.11 0.09 0.08 0.08 0.08 0.07
0.39 0.39 0.37 0.34 0.30 0.26 0.21 0.18 0.15 0.13 0.11 0.09 0.08 0.06 0.05 0.05 0.07 0.09 0.08 0.08 0.09 0.11 0.13 0.18 0.18 0.16 0.15 0.14 0.23 0.25 0.21 0.21 0.18 0.12 0.12 0.11 0.09 0.07 0.06 0.06 0.06 0.05 0.05
0.31 0.27 0.23 0.19 0.15 0.11 0.09 0.06 0.05 0.04 0.03 0.02 0.02 0.02 0.02 0.03 0.05 0.06 0.06 0.09 0.13 0.17 0.19 0.21 0.20 0.18 0.16 0.21 0.26 0.26 0.23 0.20 0.16 0.14 0.18 0.19 0.21 0.21 0.21 0.16 0.10 0.06 0.04
0.19 0.14 0.10 0.08 0.06 0.04 0.03 0.02 0.01 0.01 0.02 0.02 0.02 0.03 0.02 0.03 0.02 0.02 0.05 0.10 0.16 0.19 0.20 0.23 0.23 0.25 0.25 0.28 0.30 0.27 0.28 0.29 0.28 0.22 0.26 0.24 0.24 0.26 0.26 0.25 0.18 0.10 0.06
0.12 0.09 0.06 0.04 0.04 0.02 0.01 0.00 0.00 0.01 0.02 0.04 0.04 0.05 0.03 0.02 0.03 0.05 0.06 0.07 0.09 0.10 0.15 0.23 0.30 0.31 0.33 0.36 0.38 0.35 0.37 0.39 0.38 0.32 0.39 0.36 0.27 0.27 0.21 0.18 0.15 0.11 0.09
0.10 0.07 0.05 0.05 0.05 0.02 0.00 0.00 0.00 0.01 0.03 0.04 0.04 0.05 0.05 0.06 0.06 0.06 0.05 0.06 0.11 0.14 0.14 0.16 0.26 0.29 0.28 0.29 0.34 0.37 0.40 0.42 0.43 0.43 0.48 0.47 0.30 0.27 0.21 0.27 0.23 0.15 0.11
0.08 0.07 0.06 0.06 0.07 0.06 0.01 0.00 0.00 0.01 0.03 0.04 0.04 0.03 0.04 0.07 0.07 0.07 0.07 0.12 0.18 0.22 0.12 0.10 0.16 0.22 0.25 0.28 0.29 0.34 0.49 0.61 0.56 0.43 0.46 0.51 0.40 0.33 0.27 0.30 0.27 0.19 0.15
0.09 0.07 0.06 0.06 0.08 0.08 0.02 0.00 0.00 0.01 0.03 0.04 0.06 0.08 0.06 0.06 0.05 0.05 0.06 0.15 0.23 0.25 0.23 0.27 0.35 0.39 0.41 0.48 0.45 0.45 0.59 0.66 0.63 0.59 0.51 0.53 0.50 0.46 0.42 0.31 0.30 0.29 0.28

GEFSMA_prec_meanprecacc_096.txt.gz
Total_Precipitation_Accumulation
0.59 0.62 0.53 0.49 0.44 0.45 0.41 0.29 0.27 0.24 0.17 0.19 0.15 0.14 0.14 0.13 0.15 0.20 0.31 0.39 0.40 0.50 0.62 0.66 0.61 0.53 0.51 0.48 0.45 0.44 0.41 0.40 0.37 0.33 0.31 0.28 0.27 0.26 0.24 0.23 0.22 0.20 0.18
0.76 0.79 0.74 0.72 0.69 0.68 0.70 0.56 0.48 0.47 0.35 0.32 0.31 0.30 0.27 0.25 0.27 0.32 0.42 0.46 0.44 0.48 0.60 0.70 0.72 0.73 0.73 0.65 0.59 0.52 0.50 0.50 0.48 0.46 0.44 0.40 0.37 0.34 0.32 0.31 0.28 0.26 0.24
0.91 0.93 1.01 0.99 0.95 0.97 1.00 0.97 0.84 0.76 0.65 0.56 0.51 0.44 0.39 0.39 0.41 0.44 0.51 0.58 0.56 0.53 0.55 0.61 0.69 0.75 0.77 0.78 0.80 0.75 0.68 0.62 0.58 0.55 0.52 0.50 0.49 0.47 0.44 0.40 0.37 0.36 0.35
1.06 1.20 1.25 1.24 1.20 1.20 1.27 1.29 1.22 1.04 0.90 0.79 0.74 0.65 0.60 0.57 0.52 0.56 0.66 0.78 0.85 0.80 0.76 0.70 0.70 0.72 0.76 0.80 0.84 0.84 0.79 0.74 0.71 0.67 0.62 0.58 0.59 0.56 0.50 0.47 0.46 0.43 0.41
1.42 1.48 1.55 1.59 1.57 1.63 1.64 1.56 1.51 1.30 1.19 1.10 0.99 0.88 0.74 0.70 0.70 0.65 0.71 0.76 0.81 0.84 0.84 0.78 0.71 0.69 0.75 0.82 0.82 0.85 0.87 0.84 0.81 0.75 0.68 0.64 0.65 0.63 0.58 0.56 0.54 0.50 0.46
2.05 2.11 2.03 1.98 1.98 2.03 1.92 1.88 1.83 1.62 1.44 1.34 1.09 0.95 0.86 0.81 0.80 0.76 0.71 0.69 0.68 0.65 0.65 0.67 0.72 0.69 0.70 0.73 0.78 0.87 0.93 0.96 0.94 0.87 0.84 0.80 0.76 0.68 0.61 0.60 0.58 0.55 0.54
3.06 3.05 2.93 2.74 2.57 2.43 2.27 2.15 1.97 1.80 1.62 1.48 1.32 1.06 0.81 0.68 0.71 0.69 0.67 0.67 0.65 0.62 0.61 0.61 0.58 0.56 0.60 0.65 0.67 0.72 0.80 0.92 0.99 1.00 0.99 0.90 0.76 0.69 0.64 0.63 0.61 0.59 0.59
4.00 4.08 3.92 3.68 3.45 3.08 2.65 2.29 2.06 1.93 1.74 1.62 1.50 1.36 1.00 0.75 0.61 0.50 0.54 0.58 0.58 0.59 0.56 0.53 0.50 0.50 0.51 0.55 0.58 0.60 0.63 0.73 0.88 1.02 1.05 0.97 0.86 0.79 0.74 0.71 0.69 0.68 0.67
4.27 4.42 4.39 4.08 3.63 3.06 2.58 2.35 2.22 2.06 1.87 1.72 1.54 1.49 1.27 1.01 0.74 0.53 0.45 0.42 0.43 0.42 0.40 0.41 0.40 0.42 0.43 0.44 0.45 0.52 0.58 0.63 0.75 0.87 0.87 0.81 0.79 0.77 0.77 0.76 0.75 0.74 0.75
4.24 4.13 3.98 3.57 3.09 2.70 2.42 2.30 2.20 1.99 1.88 1.71 1.57 1.34 1.16 0.99 0.85 0.65 0.48 0.37 0.32 0.28 0.26 0.26 0.27 0.28 0.30 0.33 0.38 0.45 0.49 0.51 0.57 0.61 0.62 0.62 0.64 0.69 0.74 0.78 0.79 0.79 0.81
3.57 3.22 2.89 2.61 2.43 2.23 2.02 1.88 1.78 1.68 1.53 1.37 1.29 1.19 1.05 0.91 0.76 0.63 0.54 0.43 0.37 0.32 0.28 0.26 0.24 0.24 0.25 0.28 0.33 0.44 0.47 0.44 0.44 0.43 0.42 0.43 0.46 0.50 0.54 0.62 0.70 0.76 0.80
2.87 2.50 2.31 2.06 1.87 1.66 1.44 1.30 1.23 1.21 1.21 1.19 1.15 1.07 0.97 0.89 0.79 0.71 0.62 0.50 0.42 0.37 0.31 0.28 0.27 0.27 0.28 0.31 0.38 0.49 0.41 0.38 0.37 0.37 0.36 0.36 0.38 0.42 0.46 0.54 0.63 0.73 0.82
2.57 2.16 1.83 1.65 1.44 1.24 1.10 1.01 0.95 0.94 0.95 0.96 0.99 0.94 0.87 0.81 0.74 0.70 0.66 0.58 0.51 0.44 0.37 0.34 0.31 0.30 0.30 0.33 0.39 0.46 0.35 0.34 0.31 0.30 0.30 0.32 0.34 0.37 0.41 0.46 0.51 0.58 0.65
1.99 1.72 1.32 1.05 0.88 0.76 0.70 0.68 0.70 0.71 0.72 0.75 0.79 0.80 0.76 0.72 0.67 0.64 0.63 0.62 0.63 0.57 0.47 0.41 0.38 0.34 0.32 0.34 0.42 0.43 0.30 0.33 0.29 0.27 0.27 0.26 0.27 0.29 0.32 0.35 0.37 0.40 0.43
1.31 1.08 0.86 0.71 0.62 0.58 0.53 0.49 0.49 0.49 0.50 0.56 0.63 0.66 0.67 0.63 0.58 0.57 0.57 0.57 0.59 0.62 0.59 0.48 0.41 0.34 0.30 0.30 0.36 0.26 0.21 0.27 0.25 0.23 0.23 0.22 0.22 0.23 0.25 0.27 0.30 0.32 0.34
0.76 0.67 0.58 0.53 0.48 0.45 0.43 0.42 0.40 0.38 0.40 0.43 0.46 0.50 0.54 0.54 0.54 0.53 0.53 0.50 0.47 0.48 0.49 0.42 0.36 0.32 0.30 0.27 0.29 0.21 0.20 0.24 0.20 0.19 0.19 0.19 0.19 0.18 0.19 0.21 0.25 0.28 0.28
0.52 0.49 0.44 0.41 0.40 0.37 0.36 0.34 0.34 0.31 0.33 0.39 0.44 0.47 0.51 0.51 0.50 0.48 0.46 0.44 0.43 0.42 0.43 0.40 0.34 0.29 0.27 0.25 0.23 0.21 0.20 0.20 0.19 0.19 0.19 0.19 0.17 0.16 0.17 0.19 0.20 0.21 0.22
0.44 0.42 0.39 0.37 0.36 0.37 0.36 0.34 0.32 0.32 0.31 0.33 0.35 0.37 0.39 0.39 0.40 0.39 0.37 0.36 0.36 0.36 0.35 0.34 0.29 0.23 0.20 0.18 0.19 0.20 0.16 0.14 0.16 0.16 0.17 0.16 0.15 0.16 0.16 0.15 0.14 0.13 0.12
0.42 0.40 0.37 0.37 0.37 0.36 0.35 0.33 0.32 0.30 0.28 0.27 0.26 0.25 0.25 0.24 0.24 0.23 0.21 0.19 0.19 0.18 0.20 0.22 0.21 0.17 0.15 0.15 0.19 0.19 0.18 0.22 0.15 0.15 0.14 0.13 0.12 0.11 0.09 0.08 0.08 0.08 0.07
0.42 0.43 0.41 0.40 0.36 0.32 0.28 0.25 0.23 0.22 0.20 0.19 0.16 0.14 0.13 0.13 0.14 0.15 0.14 0.13 0.13 0.14 0.16 0.20 0.20 0.17 0.16 0.15 0.24 0.26 0.22 0.22 0.18 0.12 0.12 0.11 0.09 0.07 0.06 0.06 0.06 0.05 0.05
0.34 0.32 0.29 0.27 0.23 0.18 0.15 0.13 0.12 0.12 0.11 0.10 0.08 0.07 0.07 0.08 0.09 0.09 0.09 0.11 0.15 0.19 0.20 0.22 0.21 0.18 0.17 0.22 0.26 0.26 0.23 0.20 0.16 0.14 0.19 0.19 0.21 0.22 0.21 0.16 0.10 0.06 0.04
0.24 0.19 0.14 0.14 0.13 0.11 0.11 0.10 0.09 0.08 0.07 0.07 0.06 0.05 0.05 0.05 0.04 0.04 0.06 0.11 0.17 0.20 0.21 0.23 0.23 0.25 0.25 0.28 0.30 0.28 0.28 0.29 0.29 0.23 0.27 0.24 0.24 0.27 0.27 0.26 0.18 0.10 0.06
0.18 0.15 0.11 0.08 0.08 0.08 0.08 0.07 0.06 0.06 0.06 0.06 0.06 0.06 0.04 0.02 0.04 0.06 0.06 0.08 0.09 0.10 0.15 0.24 0.30 0.31 0.33 0.36 0.38 0.36 0.37 0.40 0.38 0.33 0.39 0.37 0.27 0.27 0.21 0.18 0.15 0.11 0.09
0.17 0.16 0.13 0.11 0.09 0.06 0.04 0.04 0.03 0.03 0.05 0.05 0.05 0.05 0.06 0.06 0.06 0.06 0.05 0.06 0.11 0.14 0.14 0.16 0.26 0.29 0.28 0.29 0.34 0.37 0.41 0.43 0.44 0.43 0.48 0.48 0.30 0.27 0.21 0.27 0.23 0.15 0.11
0.13 0.12 0.12 0.12 0.13 0.10 0.04 0.03 0.02 0.03 0.05 0.04 0.04 0.04 0.04 0.07 0.07 0.07 0.07 0.12 0.18 0.22 0.12 0.10 0.16 0.22 0.25 0.28 0.29 0.34 0.49 0.62 0.57 0.44 0.46 0.51 0.41 0.33 0.28 0.31 0.27 0.19 0.15
0.12 0.09 0.08 0.10 0.11 0.10 0.03 0.02 0.02 0.03 0.04 0.04 0.06 0.08 0.06 0.06 0.05 0.05 0.07 0.15 0.23 0.25 0.23 0.28 0.36 0.39 0.41 0.49 0.45 0.46 0.59 0.66 0.64 0.61 0.51 0.53 0.50 0.47 0.43 0.31 0.30 0.29 0.28

GEFSMA_prec_meanprecacc_102.txt.gz
Total_Precipitation_Accumulation
0.73 0.76 0.65 0.62 0.55 0.55 0.53 0.41 0.38 0.35 0.25 0.23 0.19 0.17 0.18 0.16 0.18 0.24 0.35 0.41 0.42 0.52 0.64 0.69 0.64 0.58 0.56 0.53 0.52 0.51 0.47 0.45 0.42 0.38 0.36 0.34 0.31 0.30 0.28 0.27 0.26 0.24 0.21
0.94 0.97 0.90 0.88 0.82 0.82 0.86 0.71 0.60 0.58 0.48 0.44 0.39 0.36 0.31 0.27 0.32 0.38 0.49 0.51 0.47 0.50 0.63 0.74 0.76 0.77 0.78 0.72 0.66 0.58 0.55 0.55 0.52 0.50 0.49 0.45 0.42 0.38 0.37 0.35 0.32 0.29 0.27
1.09 1.13 1.21 1.18 1.12 1.12 1.17 1.15 1.00 0.92 0.82 0.76 0.66 0.51 0.46 0.44 0.46 0.53 0.61 0.68 0.62 0.58 0.58 0.65 0.72 0.80 0.83 0.85 0.85 0.79 0.72 0.66 0.62 0.60 0.57 0.54 0.53 0.50 0.48 0.45 0.41 0.38 0.38
1.23 1.40 1.46 1.42 1.39 1.39 1.47 1.50 1.42 1.24 1.11 0.99 0.92 0.76 0.68 0.65 0.61 0.67 0.77 0.90 0.99 0.93 0.82 0.74 0.74 0.78 0.83 0.87 0.91 0.89 0.83 0.77 0.73 0.71 0.68 0.64 0.63 0.61 0.55 0.51 0.48 0.46 0.43
1.55 1.64 1.74 1.80 1.80 1.86 1.88 1.80 1.77 1.54 1.44 1.34 1.19 1.08 0.91 0.86 0.83 0.75 0.81 0.85 0.91 0.94 0.93 0.85 0.77 0.76 0.82 0.90 0.90 0.91 0.92 0.89 0.86 0.79 0.73 0.68 0.69 0.69 0.64 0.60 0.58 0.53 0.48
2.17 2.25 2.21 2.22 2.23 2.29 2.20 2.16 2.12 1.91 1.71 1.63 1.33 1.18 1.08 1.00 0.94 0.88 0.82 0.77 0.76 0.74 0.75 0.78 0.82 0.76 0.76 0.79 0.85 0.94 0.99 1.01 0.98 0.91 0.88 0.85 0.81 0.75 0.67 0.64 0.61 0.57 0.57
3.18 3.19 3.09 2.96 2.81 2.67 2.52 2.42 2.25 2.09 1.90 1.76 1.59 1.30 1.01 0.83 0.83 0.80 0.78 0.77 0.73 0.69 0.69 0.72 0.69 0.64 0.66 0.71 0.73 0.77 0.85 0.95 1.02 1.03 1.02 0.94 0.82 0.74 0.69 0.66 0.64 0.61 0.61
4.12 4.21 4.09 3.86 3.66 3.29 2.85 2.52 2.30 2.17 1.98 1.89 1.75 1.62 1.23 0.91 0.71 0.60 0.63 0.66 0.66 0.67 0.64 0.61 0.58 0.59 0.59 0.62 0.64 0.66 0.68 0.78 0.93 1.05 1.08 1.01 0.90 0.83 0.77 0.74 0.73 0.71 0.69
4.36 4.52 4.50 4.21 3.80 3.25 2.75 2.55 2.42 2.25 2.09 1.97 1.80 1.75 1.49 1.21 0.89 0.65 0.56 0.51 0.51 0.49 0.48 0.49 0.48 0.51 0.51 0.50 0.51 0.57 0.62 0.67 0.80 0.91 0.91 0.84 0.81 0.80 0.80 0.78 0.77 0.76 0.76
4.31 4.21 4.08 3.69 3.22 2.85 2.56 2.44 2.38 2.18 2.10 1.95 1.83 1.58 1.37 1.20 1.02 0.80 0.61 0.49 0.42 0.37 0.34 0.35 0.36 0.38 0.39 0.39 0.43 0.50 0.54 0.56 0.62 0.65 0.66 0.65 0.66 0.71 0.77 0.81 0.81 0.81 0.83
3.66 3.32 2.99 2.74 2.58 2.36 2.14 2.01 1.94 1.86 1.72 1.59 1.55 1.46 1.33 1.16 0.96 0.78 0.67 0.57 0.51 0.45 0.39 0.36 0.35 0.33 0.32 0.34 0.38 0.49 0.53 0.49 0.48 0.47 0.45 0.46 0.48 0.52 0.56 0.63 0.71 0.78 0.82
2.95 2.58 2.39 2.17 2.00 1.80 1.57 1.42 1.35 1.36 1.38 1.40 1.41 1.36 1.27 1.18 1.04 0.92 0.80 0.67 0.61 0.57 0.48 0.42 0.38 0.36 0.35 0.38 0.44 0.55 0.45 0.41 0.40 0.39 0.38 0.37 0.39 0.43 0.47 0.54 0.64 0.73 0.83
2.65 2.23 1.90 1.73 1.52 1.33 1.21 1.12 1.07 1.06 1.09 1.14 1.22 1.24 1.20 1.15 1.07 1.02 0.97 0.88 0.80 0.72 0.61 0.54 0.49 0.45 0.43 0.43 0.48 0.54 0.40 0.37 0.34 0.32 0.32 0.33 0.35 0.38 0.42 0.47 0.52 0.58 0.65
2.11 1.81 1.40 1.12 0.95 0.84 0.78 0.77 0.80 0.81 0.83 0.88 0.95 1.00 1.01 1.00 0.99 0.99 0.99 0.99 1.02 0.94 0.76 0.68 0.63 0.57 0.52 0.49 0.55 0.53 0.36 0.39 0.34 0.31 0.29 0.28 0.28 0.30 0.33 0.36 0.38 0.41 0.43
1.41 1.18 0.94 0.77 0.68 0.63 0.59 0.56 0.57 0.57 0.59 0.65 0.73 0.80 0.87 0.88 0.86 0.88 0.91 0.92 0.94 0.97 0.90 0.76 0.68 0.60 0.53 0.48 0.53 0.38 0.29 0.34 0.30 0.26 0.25 0.24 0.24 0.25 0.27 0.29 0.31 0.34 0.36
0.82 0.74 0.64 0.58 0.52 0.48 0.46 0.46 0.45 0.43 0.47 0.49 0.53 0.59 0.68 0.74 0.78 0.82 0.85 0.83 0.76 0.75 0.78 0.69 0.61 0.55 0.50 0.43 0.43 0.29 0.26 0.29 0.23 0.21 0.21 0.20 0.20 0.19 0.20 0.22 0.26 0.29 0.29
0.58 0.55 0.49 0.45 0.43 0.41 0.40 0.39 0.40 0.37 0.40 0.46 0.51 0.54 0.60 0.63 0.67 0.68 0.67 0.68 0.70 0.71 0.75 0.72 0.62 0.54 0.48 0.42 0.35 0.28 0.25 0.24 0.22 0.21 0.21 0.19 0.17 0.16 0.17 0.20 0.21 0.22 0.22
0.48 0.46 0.43 0.41 0.40 0.41 0.40 0.38 0.37 0.38 0.38 0.39 0.42 0.42 0.46 0.48 0.51 0.52 0.53 0.54 0.56 0.59 0.62 0.64 0.58 0.48 0.41 0.34 0.29 0.27 0.21 0.17 0.18 0.17 0.17 0.16 0.16 0.16 0.16 0.15 0.14 0.13 0.12
0.45 0.42 0.39 0.39 0.39 0.40 0.39 0.38 0.36 0.35 0.34 0.33 0.32 0.30 0.31 0.32 0.34 0.34 0.35 0.36 0.36 0.37 0.40 0.43 0.41 0.35 0.30 0.26 0.27 0.25 0.22 0.24 0.16 0.15 0.14 0.13 0.12 0.11 0.10 0.08 0.08 0.08 0.07
0.43 0.44 0.42 0.40 0.37 0.34 0.31 0.29 0.27 0.26 0.25 0.25 0.23 0.20 0.20 0.20 0.22 0.25 0.25 0.26 0.28 0.30 0.32 0.34 0.31 0.28 0.24 0.21 0.29 0.29 0.24 0.23 0.19 0.12 0.12 0.11 0.09 0.07 0.06 0.06 0.06 0.05 0.05
0.35 0.33 0.30 0.27 0.23 0.19 0.17 0.16 0.16 0.17 0.17 0.17 0.16 0.15 0.15 0.18 0.19 0.20 0.20 0.22 0.27 0.30 0.30 0.30 0.27 0.24 0.21 0.25 0.29 0.28 0.25 0.21 0.17 0.14 0.19 0.20 0.21 0.22 0.22 0.16 0.10 0.06 0.04
0.25 0.19 0.15 0.15 0.14 0.13 0.12 0.13 0.13 0.14 0.14 0.15 0.15 0.15 0.15 0.15 0.15 0.15 0.17 0.21 0.28 0.29 0.27 0.28 0.27 0.28 0.27 0.29 0.31 0.29 0.29 0.31 0.31 0.24 0.28 0.26 0.25 0.28 0.28 0.27 0.18 0.10 0.06
0.20 0.17 0.13 0.10 0.09 0.10 0.11 0.11 0.12 0.13 0.14 0.15 0.14 0.15 0.13 0.11 0.13 0.14 0.14 0.15 0.16 0.15 0.18 0.26 0.32 0.33 0.35 0.38 0.40 0.38 0.39 0.43 0.41 0.34 0.41 0.39 0.28 0.28 0.22 0.18 0.15 0.11 0.09
0.21 0.20 0.16 0.14 0.11 0.08 0.07 0.08 0.08 0.10 0.12 0.12 0.11 0.12 0.13 0.14 0.13 0.12 0.10 0.11 0.14 0.17 0.16 0.19 0.28 0.30 0.29 0.31 0.35 0.39 0.43 0.46 0.47 0.44 0.49 0.49 0.31 0.27 0.22 0.27 0.23 0.15 0.11
0.18 0.16 0.16 0.16 0.16 0.12 0.06 0.05 0.05 0.08 0.10 0.10 0.10 0.09 0.10 0.13 0.12 0.11 0.10 0.15 0.21 0.24 0.13 0.11 0.16 0.23 0.25 0.28 0.30 0.36 0.52 0.65 0.61 0.46 0.47 0.52 0.41 0.34 0.29 0.31 0.27 0.19 0.15
0.16 0.13 0.11 0.13 0.14 0.13 0.06 0.05 0.06 0.07 0.09 0.09 0.09 0.11 0.09 0.09 0.08 0.07 0.10 0.17 0.25 0.26 0.24 0.28 0.36 0.39 0.42 0.49 0.45 0.48 0.62 0.69 0.67 0.63 0.52 0.54 0.51 0.47 0.44 0.32 0.30 0.29 0.28

GEFSMA_prec_meanprecacc_108.txt.gz
Total_Precipitation_Accumulation
0.79 0.86 0.79 0.74 0.67 0.66 0.65 0.50 0.46 0.42 0.32 0.30 0.28 0.28 0.30 0.26 0.28 0.34 0.45 0.50 0.49 0.59 0.71 0.73 0.67 0.59 0.58 0.56 0.55 0.53 0.49 0.47 0.43 0.39 0.37 0.35 0.33 0.32 0.30 0.29 0.28 0.25 0.23
1.00 1.05 0.99 1.00 0.96 0.96 1.02 0.86 0.72 0.71 0.61 0.57 0.52 0.52 0.52 0.50 0.50 0.54 0.65 0.62 0.55 0.57 0.70 0.80 0.81 0.82 0.82 0.76 0.69 0.61 0.57 0.57 0.54 0.53 0.50 0.46 0.43 0.40 0.38 0.37 0.34 0.31 0.28
1.15 1.21 1.31 1.31 1.27 1.24 1.27 1.27 1.14 1.10 1.00 0.94 0.84 0.68 0.66 0.75 0.83 0.78 0.80 0.85 0.74 0.69 0.67 0.72 0.78 0.86 0.89 0.89 0.90 0.83 0.75 0.69 0.66 0.63 0.60 0.56 0.55 0.53 0.50 0.46 0.42 0.40 0.39
1.31 1.48 1.55 1.56 1.54 1.51 1.58 1.63 1.57 1.41 1.31 1.20 1.10 0.93 0.85 0.87 0.97 1.07 1.04 1.09 1.16 1.04 0.90 0.82 0.80 0.85 0.90 0.94 0.97 0.94 0.88 0.81 0.76 0.74 0.71 0.66 0.66 0.63 0.56 0.52 0.50 0.47 0.45
1.64 1.73 1.82 1.90 1.95 1.99 1.99 1.93 1.92 1.70 1.63 1.55 1.37 1.25 1.10 1.06 1.08 1.09 1.14 1.10 1.11 1.08 1.04 0.93 0.85 0.83 0.89 0.97 0.97 0.98 0.97 0.94 0.89 0.83 0.76 0.70 0.71 0.70 0.66 0.62 0.59 0.54 0.49
2.26 2.34 2.31 2.33 2.35 2.41 2.30 2.28 2.26 2.06 1.89 1.84 1.55 1.38 1.27 1.21 1.18 1.13 1.10 1.05 0.98 0.89 0.90 0.92 0.92 0.85 0.86 0.89 0.92 1.00 1.04 1.06 1.02 0.95 0.91 0.88 0.84 0.77 0.69 0.66 0.62 0.59 0.59
3.26 3.26 3.17 3.06 2.91 2.77 2.62 2.55 2.39 2.22 2.05 1.95 1.80 1.49 1.18 1.03 1.05 1.02 0.98 1.00 0.99 0.90 0.86 0.87 0.84 0.78 0.78 0.81 0.81 0.83 0.90 1.01 1.06 1.06 1.05 0.96 0.84 0.76 0.70 0.68 0.65 0.63 0.63
4.19 4.29 4.17 3.95 3.76 3.38 2.95 2.63 2.42 2.29 2.09 2.02 1.92 1.81 1.41 1.12 0.92 0.79 0.81 0.84 0.85 0.87 0.80 0.75 0.71 0.71 0.71 0.72 0.71 0.72 0.74 0.82 0.97 1.09 1.11 1.02 0.92 0.84 0.79 0.77 0.75 0.73 0.72
4.43 4.60 4.58 4.31 3.91 3.35 2.84 2.64 2.52 2.35 2.19 2.09 1.94 1.92 1.64 1.36 1.07 0.81 0.70 0.65 0.66 0.64 0.62 0.61 0.60 0.62 0.61 0.59 0.58 0.64 0.68 0.72 0.84 0.95 0.94 0.86 0.82 0.82 0.82 0.81 0.79 0.78 0.78
4.36 4.28 4.15 3.76 3.29 2.93 2.65 2.54 2.48 2.27 2.21 2.06 1.95 1.71 1.50 1.31 1.14 0.92 0.75 0.64 0.58 0.53 0.50 0.49 0.49 0.49 0.50 0.48 0.51 0.57 0.60 0.61 0.67 0.69 0.70 0.68 0.68 0.73 0.78 0.82 0.83 0.83 0.85
3.71 3.37 3.04 2.80 2.64 2.42 2.20 2.08 2.02 1.94 1.81 1.69 1.66 1.60 1.50 1.32 1.08 0.89 0.80 0.72 0.67 0.60 0.52 0.48 0.46 0.45 0.44 0.45 0.48 0.58 0.60 0.55 0.53 0.51 0.49 0.49 0.51 0.54 0.57 0.65 0.72 0.78 0.83
3.01 2.63 2.44 2.21 2.06 1.87 1.64 1.49 1.44 1.46 1.48 1.51 1.52 1.48 1.42 1.35 1.21 1.07 0.94 0.83 0.80 0.77 0.66 0.59 0.56 0.52 0.50 0.51 0.57 0.68 0.55 0.49 0.46 0.44 0.42 0.41 0.42 0.45 0.49 0.56 0.65 0.74 0.84
2.71 2.29 1.96 1.78 1.56 1.38 1.28 1.20 1.16 1.15 1.20 1.27 1.36 1.36 1.33 1.29 1.22 1.18 1.15 1.09 1.01 0.93 0.81 0.73 0.69 0.65 0.61 0.59 0.63 0.67 0.49 0.46 0.41 0.37 0.35 0.36 0.37 0.40 0.44 0.48 0.53 0.59 0.66
2.15 1.85 1.45 1.16 1.00 0.89 0.84 0.85 0.88 0.92 0.95 0.99 1.07 1.12 1.13 1.11 1.11 1.12 1.13 1.15 1.21 1.14 0.95 0.85 0.83 0.78 0.70 0.64 0.69 0.66 0.46 0.48 0.41 0.36 0.33 0.32 0.31 0.32 0.34 0.37 0.39 0.41 0.44
1.42 1.19 0.96 0.80 0.71 0.68 0.64 0.63 0.64 0.67 0.70 0.76 0.83 0.92 0.98 1.00 0.99 1.01 1.05 1.06 1.08 1.14 1.08 0.93 0.85 0.78 0.68 0.61 0.67 0.49 0.38 0.45 0.39 0.34 0.32 0.30 0.28 0.27 0.28 0.29 0.31 0.34 0.36
0.83 0.75 0.65 0.61 0.57 0.52 0.51 0.51 0.50 0.51 0.59 0.62 0.65 0.71 0.81 0.88 0.91 0.95 0.98 0.96 0.90 0.88 0.92 0.84 0.75 0.69 0.64 0.58 0.60 0.42 0.37 0.41 0.32 0.28 0.26 0.25 0.23 0.21 0.21 0.23 0.26 0.29 0.29
0.60 0.57 0.52 0.49 0.49 0.48 0.47 0.44 0.44 0.42 0.46 0.56 0.65 0.69 0.73 0.75 0.77 0.77 0.78 0.79 0.82 0.84 0.90 0.87 0.76 0.68 0.62 0.55 0.49 0.40 0.34 0.32 0.29 0.27 0.25 0.23 0.20 0.18 0.18 0.20 0.21 0.22 0.22
0.49 0.48 0.46 0.45 0.45 0.47 0.48 0.45 0.42 0.42 0.42 0.45 0.50 0.52 0.54 0.54 0.57 0.59 0.61 0.62 0.66 0.70 0.74 0.78 0.72 0.61 0.55 0.47 0.41 0.38 0.29 0.24 0.23 0.22 0.21 0.19 0.17 0.17 0.16 0.15 0.14 0.13 0.12
0.45 0.43 0.42 0.42 0.43 0.43 0.43 0.42 0.39 0.38 0.37 0.36 0.35 0.34 0.35 0.36 0.39 0.41 0.42 0.44 0.45 0.46 0.50 0.53 0.53 0.47 0.42 0.37 0.36 0.33 0.28 0.29 0.20 0.18 0.16 0.14 0.13 0.12 0.10 0.08 0.08 0.08 0.07
0.43 0.44 0.42 0.41 0.38 0.34 0.32 0.30 0.28 0.27 0.26 0.27 0.26 0.23 0.23 0.24 0.27 0.30 0.31 0.33 0.34 0.38 0.41 0.44 0.43 0.40 0.35 0.29 0.36 0.35 0.29 0.27 0.22 0.14 0.14 0.12 0.10 0.07 0.06 0.06 0.06 0.05 0.05
0.35 0.33 0.30 0.27 0.23 0.19 0.17 0.16 0.16 0.17 0.17 0.19 0.19 0.18 0.19 0.23 0.26 0.26 0.25 0.28 0.33 0.37 0.38 0.38 0.36 0.33 0.30 0.33 0.35 0.32 0.29 0.24 0.20 0.16 0.20 0.20 0.21 0.23 0.22 0.16 0.10 0.06 0.04
0.25 0.20 0.15 0.15 0.15 0.13 0.13 0.13 0.13 0.14 0.15 0.16 0.18 0.19 0.19 0.21 0.22 0.22 0.24 0.29 0.36 0.38 0.37 0.36 0.35 0.35 0.32 0.34 0.35 0.32 0.32 0.33 0.33 0.24 0.28 0.26 0.25 0.28 0.29 0.27 0.18 0.10 0.06
0.20 0.17 0.13 0.10 0.10 0.11 0.11 0.12 0.13 0.14 0.16 0.17 0.17 0.18 0.17 0.16 0.18 0.18 0.20 0.24 0.26 0.26 0.28 0.34 0.39 0.38 0.39 0.41 0.42 0.40 0.41 0.44 0.42 0.34 0.41 0.39 0.28 0.28 0.22 0.18 0.15 0.11 0.09
0.22 0.20 0.17 0.14 0.12 0.10 0.08 0.08 0.09 0.11 0.13 0.15 0.15 0.16 0.17 0.19 0.18 0.17 0.15 0.16 0.21 0.24 0.23 0.24 0.32 0.33 0.32 0.33 0.37 0.40 0.43 0.46 0.47 0.45 0.49 0.49 0.31 0.27 0.22 0.27 0.23 0.15 0.11
0.18 0.17 0.16 0.17 0.17 0.13 0.07 0.06 0.07 0.09 0.12 0.13 0.13 0.13 0.15 0.19 0.19 0.17 0.16 0.20 0.25 0.28 0.17 0.15 0.19 0.25 0.26 0.29 0.30 0.37 0.52 0.65 0.61 0.46 0.47 0.52 0.41 0.34 0.29 0.31 0.27 0.20 0.15
0.17 0.14 0.12 0.13 0.14 0.14 0.07 0.06 0.08 0.08 0.11 0.10 0.12 0.14 0.14 0.13 0.13 0.11 0.13 0.21 0.29 0.29 0.27 0.31 0.38 0.41 0.42 0.49 0.46 0.48 0.63 0.70 0.67 0.63 0.52 0.54 0.51 0.47 0.44 0.32 0.31 0.30 0.28

GEFSMA_prec_meanprecacc_114.txt.gz
Total_Precipitation_Accumulation
0.82 0.89 0.81 0.75 0.69 0.68 0.68 0.54 0.49 0.46 0.34 0.31 0.29 0.29 0.33 0.30 0.30 0.36 0.47 0.54 0.55 0.69 0.84 0.86 0.76 0.66 0.63 0.60 0.59 0.57 0.52 0.51 0.46 0.40 0.38 0.36 0.35 0.34 0.32 0.32 0.31 0.27 0.25
1.03 1.08 1.02 1.02 0.98 1.00 1.07 0.91 0.76 0.76 0.67 0.62 0.57 0.58 0.59 0.57 0.54 0.58 0.71 0.67 0.60 0.65 0.81 0.93 0.93 0.90 0.88 0.81 0.74 0.65 0.61 0.60 0.57 0.56 0.53 0.48 0.45 0.41 0.40 0.39 0.36 0.32 0.30
1.19 1.24 1.34 1.34 1.29 1.27 1.31 1.31 1.21 1.18 1.09 1.04 0.92 0.76 0.73 0.83 0.89 0.81 0.85 0.91 0.81 0.78 0.77 0.84 0.90 0.96 0.99 0.98 0.96 0.89 0.80 0.74 0.69 0.66 0.62 0.58 0.56 0.54 0.51 0.48 0.44 0.41 0.40
1.36 1.51 1.58 1.59 1.57 1.55 1.62 1.68 1.65 1.49 1.39 1.30 1.19 1.00 0.92 0.93 1.04 1.13 1.10 1.17 1.26 1.15 1.01 0.92 0.91 0.96 1.01 1.04 1.06 1.03 0.94 0.87 0.81 0.77 0.73 0.68 0.68 0.64 0.57 0.53 0.52 0.49 0.47
1.70 1.78 1.86 1.94 1.99 2.05 2.05 1.98 1.98 1.78 1.73 1.65 1.47 1.34 1.18 1.13 1.14 1.17 1.24 1.22 1.26 1.25 1.17 1.05 0.97 0.95 1.01 1.10 1.08 1.08 1.06 1.01 0.94 0.86 0.79 0.74 0.74 0.72 0.67 0.64 0.62 0.57 0.52
2.36 2.44 2.40 2.42 2.43 2.48 2.37 2.34 2.32 2.14 1.98 1.94 1.66 1.49 1.37 1.28 1.25 1.21 1.22 1.20 1.12 1.04 1.06 1.05 1.05 0.97 0.97 0.99 1.03 1.11 1.13 1.15 1.10 1.01 0.96 0.91 0.86 0.79 0.71 0.70 0.66 0.62 0.61
3.38 3.38 3.28 3.17 3.02 2.88 2.72 2.64 2.49 2.31 2.12 2.03 1.90 1.61 1.29 1.11 1.12 1.09 1.08 1.13 1.13 1.04 1.00 1.01 0.97 0.90 0.88 0.92 0.91 0.94 1.02 1.13 1.17 1.15 1.10 1.00 0.87 0.78 0.73 0.70 0.67 0.65 0.65
4.32 4.40 4.29 4.07 3.86 3.48 3.05 2.75 2.54 2.39 2.19 2.13 2.02 1.93 1.53 1.22 1.00 0.85 0.89 0.92 0.96 0.99 0.94 0.88 0.85 0.86 0.86 0.85 0.83 0.85 0.87 0.94 1.08 1.18 1.17 1.07 0.95 0.87 0.81 0.79 0.77 0.76 0.74
4.54 4.70 4.68 4.41 4.02 3.46 2.94 2.75 2.63 2.45 2.29 2.20 2.03 2.02 1.72 1.43 1.15 0.88 0.75 0.72 0.73 0.73 0.73 0.73 0.72 0.75 0.74 0.73 0.71 0.76 0.81 0.84 0.96 1.06 1.02 0.92 0.86 0.85 0.85 0.84 0.83 0.82 0.82
4.45 4.37 4.24 3.86 3.41 3.05 2.77 2.66 2.60 2.38 2.33 2.18 2.06 1.80 1.57 1.36 1.20 0.99 0.82 0.70 0.65 0.61 0.60 0.62 0.62 0.66 0.66 0.63 0.66 0.70 0.72 0.73 0.80 0.81 0.79 0.76 0.75 0.78 0.82 0.87 0.88 0.87 0.89
3.77 3.43 3.11 2.87 2.73 2.51 2.30 2.21 2.16 2.08 1.94 1.82 1.77 1.70 1.61 1.40 1.13 0.93 0.85 0.78 0.75 0.70 0.63 0.62 0.62 0.62 0.62 0.61 0.63 0.71 0.71 0.65 0.64 0.62 0.58 0.56 0.58 0.60 0.62 0.69 0.76 0.82 0.86
3.09 2.68 2.49 2.27 2.12 1.93 1.71 1.58 1.55 1.57 1.60 1.63 1.65 1.59 1.52 1.45 1.30 1.15 1.03 0.92 0.90 0.88 0.78 0.71 0.70 0.69 0.69 0.70 0.75 0.86 0.69 0.62 0.58 0.55 0.52 0.50 0.51 0.53 0.55 0.60 0.68 0.77 0.87
2.79 2.38 2.01 1.82 1.60 1.41 1.32 1.27 1.23 1.23 1.27 1.34 1.45 1.47 1.42 1.37 1.32 1.28 1.25 1.18 1.10 1.02 0.91 0.86 0.83 0.82 0.80 0.79 0.84 0.90 0.69 0.62 0.54 0.49 0.45 0.44 0.45 0.47 0.50 0.54 0.57 0.62 0.68
2.19 1.91 1.51 1.21 1.04 0.92 0.88 0.89 0.92 0.98 1.01 1.05 1.14 1.22 1.21 1.19 1.20 1.22 1.23 1.25 1.32 1.24 1.04 0.96 0.97 0.96 0.90 0.85 0.93 0.88 0.62 0.64 0.54 0.47 0.42 0.39 0.38 0.39 0.40 0.42 0.42 0.43 0.46
1.46 1.23 1.00 0.84 0.76 0.73 0.69 0.67 0.68 0.71 0.75 0.81 0.89 0.97 1.05 1.08 1.07 1.10 1.14 1.16 1.19 1.25 1.18 1.04 0.99 0.95 0.86 0.82 0.92 0.66 0.53 0.60 0.52 0.46 0.42 0.39 0.36 0.34 0.34 0.34 0.34 0.35 0.37
0.86 0.78 0.68 0.64 0.61 0.56 0.55 0.55 0.53 0.54 0.61 0.65 0.68 0.76 0.87 0.96 1.00 1.04 1.08 1.08 1.01 0.99 1.04 0.95 0.87 0.84 0.81 0.76 0.80 0.56 0.51 0.57 0.45 0.38 0.35 0.33 0.30 0.27 0.26 0.26 0.29 0.30 0.30
0.62 0.60 0.53 0.51 0.51 0.50 0.49 0.47 0.48 0.45 0.49 0.59 0.68 0.74 0.79 0.84 0.88 0.89 0.90 0.92 0.97 0.99 1.04 1.02 0.91 0.82 0.77 0.71 0.65 0.54 0.46 0.42 0.38 0.36 0.31 0.28 0.25 0.23 0.22 0.23 0.23 0.23 0.22
0.51 0.50 0.48 0.46 0.46 0.48 0.50 0.48 0.48 0.48 0.48 0.51 0.55 0.58 0.60 0.62 0.67 0.72 0.76 0.76 0.80 0.84 0.89 0.93 0.87 0.75 0.68 0.61 0.54 0.50 0.40 0.33 0.30 0.31 0.29 0.25 0.23 0.21 0.19 0.17 0.15 0.14 0.13
0.47 0.45 0.44 0.44 0.45 0.44 0.45 0.46 0.46 0.45 0.44 0.44 0.42 0.40 0.41 0.43 0.47 0.48 0.51 0.54 0.56 0.57 0.61 0.66 0.66 0.59 0.54 0.48 0.47 0.43 0.37 0.37 0.27 0.26 0.23 0.20 0.17 0.14 0.12 0.10 0.09 0.08 0.07
0.44 0.45 0.45 0.43 0.40 0.35 0.33 0.32 0.31 0.31 0.30 0.31 0.29 0.27 0.27 0.29 0.31 0.34 0.36 0.38 0.41 0.46 0.50 0.54 0.53 0.49 0.44 0.39 0.43 0.43 0.37 0.34 0.27 0.19 0.19 0.16 0.14 0.11 0.09 0.07 0.06 0.06 0.05
0.36 0.35 0.31 0.28 0.24 0.19 0.17 0.17 0.17 0.18 0.19 0.20 0.20 0.18 0.19 0.24 0.28 0.29 0.29 0.33 0.38 0.44 0.46 0.47 0.43 0.40 0.37 0.40 0.42 0.39 0.34 0.29 0.25 0.21 0.24 0.24 0.25 0.25 0.24 0.17 0.10 0.07 0.04
0.27 0.21 0.16 0.15 0.15 0.13 0.13 0.13 0.14 0.14 0.16 0.17 0.19 0.19 0.19 0.21 0.23 0.23 0.26 0.33 0.42 0.44 0.44 0.45 0.42 0.41 0.39 0.40 0.40 0.38 0.37 0.37 0.37 0.28 0.32 0.30 0.28 0.30 0.30 0.27 0.18 0.10 0.06
0.22 0.19 0.14 0.10 0.10 0.11 0.12 0.12 0.13 0.14 0.16 0.18 0.18 0.18 0.18 0.17 0.19 0.20 0.23 0.27 0.31 0.33 0.36 0.42 0.47 0.45 0.45 0.45 0.46 0.44 0.45 0.47 0.45 0.37 0.44 0.42 0.30 0.29 0.22 0.18 0.15 0.11 0.09
0.23 0.22 0.18 0.15 0.13 0.10 0.09 0.09 0.10 0.11 0.14 0.16 0.16 0.17 0.19 0.20 0.20 0.20 0.20 0.21 0.27 0.33 0.32 0.32 0.40 0.41 0.37 0.38 0.42 0.45 0.47 0.50 0.50 0.47 0.50 0.51 0.31 0.28 0.22 0.27 0.23 0.15 0.11
0.20 0.18 0.17 0.17 0.17 0.14 0.08 0.08 0.08 0.09 0.12 0.14 0.14 0.15 0.17 0.21 0.22 0.20 0.20 0.26 0.31 0.36 0.27 0.25 0.30 0.34 0.35 0.36 0.35 0.40 0.55 0.68 0.63 0.48 0.48 0.53 0.41 0.34 0.29 0.31 0.27 0.20 0.15
0.20 0.16 0.14 0.15 0.15 0.14 0.09 0.09 0.09 0.09 0.11 0.11 0.13 0.16 0.16 0.17 0.17 0.15 0.16 0.25 0.35 0.37 0.33 0.37 0.45 0.48 0.48 0.53 0.48 0.50 0.64 0.71 0.68 0.63 0.53 0.54 0.51 0.47 0.44 0.32 0.31 0.30 0.28

GEFSMA_prec_meanprecacc_120.txt.gz
Total_Precipitation_Accumulation
0.91 0.96 0.89 0.86 0.78 0.77 0.76 0.62 0.57 0.52 0.40 0.37 0.32 0.31 0.35 0.31 0.31 0.38 0.49 0.56 0.58 0.75 0.94 0.96 0.86 0.74 0.70 0.68 0.67 0.63 0.57 0.56 0.51 0.44 0.41 0.38 0.37 0.37 0.34 0.35 0.34 0.30 0.28
1.10 1.15 1.10 1.12 1.09 1.09 1.17 1.02 0.86 0.85 0.75 0.70 0.62 0.62 0.63 0.61 0.58 0.60 0.73 0.69 0.63 0.69 0.89 1.05 1.06 1.02 1.00 0.92 0.86 0.74 0.67 0.65 0.62 0.61 0.58 0.52 0.48 0.44 0.43 0.43 0.39 0.35 0.33
1.27 1.32 1.43 1.43 1.40 1.38 1.40 1.41 1.31 1.26 1.16 1.11 0.99 0.83 0.80 0.89 0.94 0.86 0.88 0.95 0.84 0.82 0.83 0.93 1.02 1.09 1.13 1.12 1.07 1.00 0.90 0.82 0.77 0.74 0.69 0.62 0.61 0.58 0.56 0.52 0.47 0.44 0.43
1.42 1.57 1.64 1.67 1.67 1.65 1.72 1.76 1.73 1.56 1.47 1.37 1.27 1.08 0.99 1.00 1.09 1.18 1.15 1.22 1.31 1.19 1.06 0.99 1.00 1.07 1.15 1.18 1.18 1.16 1.09 0.99 0.92 0.87 0.81 0.74 0.73 0.69 0.61 0.56 0.55 0.52 0.50
1.79 1.86 1.94 2.03 2.08 2.14 2.14 2.07 2.06 1.85 1.81 1.73 1.55 1.41 1.24 1.19 1.19 1.20 1.28 1.27 1.32 1.30 1.23 1.13 1.06 1.05 1.14 1.24 1.20 1.21 1.19 1.14 1.07 0.96 0.88 0.81 0.80 0.77 0.72 0.68 0.65 0.61 0.56
2.45 2.53 2.52 2.54 2.54 2.57 2.46 2.43 2.39 2.21 2.05 2.02 1.73 1.55 1.42 1.33 1.30 1.26 1.27 1.26 1.18 1.10 1.12 1.13 1.15 1.08 1.10 1.14 1.17 1.26 1.29 1.30 1.24 1.13 1.07 1.00 0.94 0.85 0.75 0.73 0.70 0.66 0.65
3.46 3.48 3.38 3.28 3.15 3.00 2.84 2.74 2.58 2.39 2.19 2.10 1.97 1.67 1.35 1.15 1.16 1.13 1.12 1.18 1.18 1.11 1.08 1.10 1.08 1.03 1.00 1.01 1.04 1.10 1.20 1.33 1.34 1.29 1.22 1.11 0.94 0.84 0.78 0.75 0.72 0.70 0.70
4.39 4.49 4.38 4.17 3.96 3.58 3.15 2.85 2.64 2.49 2.27 2.20 2.10 2.01 1.59 1.26 1.03 0.88 0.92 0.95 0.99 1.05 1.00 0.96 0.95 0.97 0.98 0.97 0.95 0.98 1.03 1.15 1.29 1.36 1.34 1.21 1.07 0.97 0.90 0.85 0.82 0.81 0.79
4.60 4.77 4.74 4.48 4.10 3.54 3.02 2.82 2.71 2.55 2.40 2.30 2.15 2.16 1.82 1.49 1.20 0.92 0.79 0.75 0.77 0.78 0.78 0.79 0.80 0.84 0.85 0.86 0.85 0.91 0.96 1.02 1.17 1.26 1.20 1.06 0.98 0.95 0.95 0.92 0.91 0.89 0.89
4.50 4.41 4.29 3.91 3.46 3.10 2.81 2.71 2.65 2.44 2.41 2.27 2.16 1.91 1.67 1.45 1.29 1.06 0.86 0.74 0.68 0.65 0.65 0.67 0.69 0.74 0.78 0.78 0.82 0.87 0.88 0.89 0.98 1.01 0.98 0.92 0.88 0.88 0.92 0.95 0.96 0.96 0.97
3.80 3.46 3.14 2.90 2.76 2.54 2.33 2.24 2.20 2.13 1.99 1.88 1.84 1.78 1.68 1.47 1.22 1.03 0.92 0.83 0.79 0.75 0.69 0.69 0.70 0.72 0.74 0.77 0.80 0.89 0.88 0.82 0.82 0.80 0.74 0.72 0.73 0.75 0.77 0.81 0.87 0.92 0.94
3.11 2.70 2.51 2.30 2.15 1.97 1.74 1.61 1.59 1.62 1.65 1.69 1.71 1.66 1.58 1.51 1.36 1.24 1.13 1.00 0.96 0.94 0.84 0.79 0.79 0.80 0.83 0.89 1.00 1.15 0.92 0.81 0.77 0.74 0.69 0.65 0.64 0.65 0.68 0.73 0.80 0.87 0.95
2.80 2.39 2.03 1.84 1.63 1.44 1.35 1.30 1.27 1.26 1.30 1.39 1.50 1.52 1.48 1.43 1.38 1.35 1.34 1.27 1.17 1.07 0.96 0.92 0.91 0.92 0.92 0.96 1.07 1.20 0.99 0.91 0.81 0.72 0.65 0.61 0.59 0.58 0.61 0.64 0.67 0.72 0.77
2.20 1.92 1.53 1.23 1.07 0.95 0.91 0.92 0.96 1.01 1.04 1.08 1.17 1.26 1.27 1.25 1.27 1.28 1.31 1.33 1.39 1.30 1.09 1.02 1.04 1.05 1.03 1.00 1.12 1.11 0.90 0.98 0.87 0.76 0.67 0.60 0.56 0.53 0.52 0.53 0.53 0.53 0.54
1.46 1.24 1.01 0.86 0.78 0.75 0.71 0.69 0.70 0.74 0.78 0.84 0.91 1.00 1.09 1.13 1.14 1.18 1.22 1.24 1.27 1.32 1.23 1.09 1.06 1.05 0.99 0.97 1.11 0.85 0.74 0.88 0.83 0.75 0.68 0.61 0.54 0.49 0.47 0.46 0.45 0.45 0.45
0.86 0.78 0.69 0.66 0.62 0.57 0.56 0.56 0.55 0.56 0.64 0.68 0.70 0.78 0.89 0.99 1.05 1.11 1.16 1.15 1.09 1.07 1.11 1.02 0.95 0.96 0.94 0.90 0.98 0.72 0.69 0.77 0.65 0.58 0.52 0.48 0.44 0.39 0.37 0.36 0.38 0.38 0.37
0.63 0.60 0.54 0.52 0.52 0.52 0.51 0.48 0.49 0.47 0.51 0.62 0.71 0.76 0.81 0.87 0.92 0.94 0.95 0.97 1.02 1.05 1.12 1.12 1.01 0.94 0.88 0.84 0.80 0.68 0.60 0.56 0.53 0.52 0.46 0.41 0.36 0.32 0.29 0.28 0.28 0.28 0.28
0.51 0.51 0.48 0.47 0.47 0.50 0.51 0.50 0.49 0.50 0.50 0.54 0.59 0.62 0.64 0.65 0.71 0.77 0.81 0.82 0.86 0.91 0.98 1.04 0.98 0.85 0.78 0.70 0.64 0.60 0.50 0.44 0.42 0.44 0.41 0.36 0.32 0.28 0.25 0.22 0.20 0.18 0.17
0.48 0.46 0.45 0.45 0.46 0.45 0.46 0.48 0.48 0.48 0.46 0.47 0.47 0.47 0.47 0.48 0.51 0.53 0.56 0.62 0.65 0.67 0.71 0.76 0.78 0.70 0.65 0.58 0.55 0.51 0.45 0.45 0.36 0.35 0.31 0.27 0.24 0.21 0.18 0.15 0.14 0.13 0.12
0.44 0.46 0.45 0.44 0.41 0.37 0.34 0.33 0.33 0.32 0.31 0.32 0.31 0.31 0.33 0.35 0.37 0.39 0.40 0.42 0.46 0.52 0.56 0.61 0.62 0.58 0.53 0.47 0.50 0.49 0.44 0.41 0.34 0.25 0.25 0.21 0.18 0.14 0.13 0.12 0.12 0.10 0.09
0.37 0.36 0.32 0.29 0.24 0.20 0.18 0.17 0.18 0.19 0.20 0.21 0.21 0.20 0.21 0.26 0.31 0.31 0.32 0.36 0.42 0.48 0.50 0.52 0.50 0.46 0.43 0.46 0.47 0.44 0.40 0.35 0.30 0.25 0.28 0.27 0.27 0.28 0.28 0.22 0.15 0.10 0.08
0.29 0.23 0.18 0.16 0.15 0.13 0.13 0.14 0.14 0.16 0.17 0.18 0.19 0.20 0.20 0.22 0.24 0.24 0.28 0.36 0.46 0.48 0.47 0.49 0.47 0.46 0.43 0.44 0.45 0.42 0.42 0.42 0.42 0.32 0.34 0.32 0.30 0.34 0.33 0.30 0.20 0.12 0.08
0.24 0.21 0.16 0.12 0.11 0.11 0.12 0.12 0.13 0.16 0.17 0.19 0.19 0.19 0.18 0.18 0.20 0.21 0.24 0.29 0.33 0.36 0.41 0.48 0.53 0.51 0.50 0.51 0.53 0.50 0.50 0.52 0.50 0.40 0.46 0.44 0.32 0.31 0.24 0.19 0.16 0.11 0.09
0.25 0.24 0.20 0.17 0.14 0.11 0.09 0.09 0.10 0.12 0.15 0.17 0.18 0.19 0.20 0.21 0.21 0.21 0.21 0.23 0.28 0.34 0.35 0.36 0.46 0.48 0.45 0.46 0.50 0.52 0.53 0.55 0.55 0.50 0.54 0.55 0.35 0.29 0.23 0.28 0.24 0.15 0.11
0.22 0.20 0.19 0.19 0.19 0.15 0.09 0.08 0.09 0.11 0.14 0.15 0.16 0.16 0.19 0.22 0.23 0.21 0.21 0.28 0.34 0.38 0.31 0.30 0.37 0.42 0.43 0.44 0.43 0.47 0.62 0.74 0.70 0.53 0.52 0.56 0.44 0.35 0.29 0.31 0.28 0.20 0.15
0.22 0.18 0.16 0.16 0.16 0.15 0.09 0.09 0.11 0.11 0.13 0.13 0.15 0.17 0.18 0.18 0.19 0.17 0.19 0.28 0.38 0.40 0.36 0.41 0.51 0.54 0.54 0.60 0.55 0.56 0.70 0.77 0.74 0.68 0.56 0.56 0.52 0.48 0.45 0.33 0.31 0.30 0.28

GEFSMA_prec_meanprecacc_126.txt.gz
Total_Precipitation_Accumulation
1.13 1.20 1.07 1.02 0.93 0.93 0.94 0.82 0.74 0.68 0.54 0.49 0.38 0.33 0.36 0.32 0.34 0.42 0.53 0.58 0.59 0.76 0.97 1.01 0.93 0.82 0.78 0.75 0.73 0.69 0.63 0.61 0.55 0.48 0.44 0.41 0.40 0.39 0.36 0.36 0.36 0.33 0.30
1.32 1.38 1.31 1.28 1.23 1.24 1.32 1.17 1.01 1.00 0.87 0.81 0.71 0.66 0.66 0.63 0.60 0.63 0.77 0.74 0.65 0.71 0.91 1.09 1.13 1.11 1.09 1.01 0.94 0.83 0.76 0.73 0.68 0.66 0.63 0.56 0.51 0.47 0.45 0.45 0.42 0.38 0.35
1.48 1.52 1.63 1.61 1.55 1.52 1.55 1.54 1.43 1.39 1.28 1.21 1.08 0.89 0.85 0.92 0.97 0.90 0.94 1.02 0.89 0.86 0.86 0.96 1.06 1.15 1.21 1.20 1.17 1.09 0.99 0.92 0.85 0.81 0.76 0.69 0.65 0.63 0.61 0.56 0.51 0.47 0.46
1.63 1.77 1.84 1.84 1.83 1.79 1.87 1.92 1.88 1.70 1.62 1.49 1.37 1.15 1.07 1.06 1.13 1.22 1.20 1.26 1.37 1.27 1.13 1.04 1.04 1.12 1.22 1.25 1.27 1.26 1.20 1.10 1.01 0.94 0.88 0.81 0.79 0.75 0.68 0.62 0.59 0.57 0.54
1.97 2.05 2.13 2.21 2.23 2.28 2.29 2.20 2.22 2.00 1.97 1.88 1.65 1.52 1.33 1.26 1.25 1.25 1.32 1.31 1.37 1.38 1.35 1.28 1.14 1.12 1.22 1.36 1.35 1.37 1.33 1.26 1.19 1.07 0.98 0.90 0.89 0.85 0.78 0.73 0.70 0.66 0.61
2.61 2.69 2.67 2.68 2.68 2.74 2.62 2.57 2.54 2.35 2.19 2.16 1.83 1.67 1.52 1.40 1.37 1.32 1.33 1.33 1.25 1.17 1.21 1.24 1.28 1.18 1.21 1.28 1.30 1.38 1.42 1.45 1.39 1.27 1.19 1.11 1.03 0.91 0.80 0.77 0.73 0.70 0.69
3.59 3.61 3.52 3.41 3.27 3.13 2.97 2.87 2.70 2.52 2.31 2.21 2.08 1.77 1.42 1.21 1.22 1.19 1.19 1.27 1.28 1.22 1.19 1.20 1.20 1.14 1.09 1.10 1.12 1.20 1.32 1.48 1.52 1.45 1.35 1.22 1.05 0.92 0.85 0.80 0.77 0.75 0.74
4.52 4.62 4.51 4.29 4.09 3.72 3.29 2.97 2.76 2.62 2.39 2.32 2.22 2.12 1.68 1.34 1.13 0.94 0.98 1.02 1.06 1.14 1.12 1.06 1.06 1.10 1.09 1.06 1.03 1.06 1.13 1.28 1.45 1.54 1.51 1.36 1.20 1.09 1.01 0.95 0.90 0.87 0.85
4.72 4.88 4.85 4.60 4.23 3.66 3.14 2.92 2.80 2.65 2.51 2.41 2.26 2.28 1.93 1.60 1.32 1.01 0.86 0.80 0.84 0.85 0.85 0.88 0.90 0.95 0.94 0.95 0.93 0.98 1.05 1.13 1.31 1.44 1.39 1.24 1.13 1.08 1.07 1.02 0.99 0.97 0.96
4.58 4.50 4.37 3.98 3.54 3.18 2.90 2.78 2.74 2.53 2.50 2.39 2.28 2.01 1.79 1.57 1.40 1.16 0.95 0.81 0.76 0.72 0.72 0.74 0.77 0.84 0.88 0.89 0.93 0.97 0.99 1.03 1.13 1.18 1.19 1.14 1.08 1.06 1.08 1.09 1.07 1.06 1.06
3.84 3.50 3.17 2.93 2.80 2.59 2.38 2.29 2.26 2.20 2.08 1.98 1.95 1.88 1.78 1.58 1.32 1.14 1.02 0.91 0.87 0.81 0.76 0.77 0.78 0.81 0.85 0.88 0.93 1.03 1.03 0.97 0.98 0.96 0.95 0.95 0.97 0.99 1.00 1.02 1.05 1.08 1.08
3.13 2.72 2.53 2.32 2.17 1.99 1.77 1.64 1.62 1.66 1.71 1.76 1.80 1.76 1.68 1.62 1.48 1.36 1.24 1.08 1.03 1.00 0.90 0.86 0.86 0.88 0.93 1.00 1.11 1.29 1.10 0.99 0.94 0.91 0.86 0.84 0.86 0.87 0.89 0.92 0.98 1.04 1.10
2.82 2.41 2.04 1.85 1.64 1.46 1.37 1.32 1.30 1.29 1.34 1.44 1.56 1.59 1.56 1.52 1.47 1.46 1.45 1.35 1.25 1.14 1.02 0.97 0.96 0.98 1.00 1.06 1.18 1.33 1.14 1.06 0.96 0.87 0.81 0.80 0.81 0.80 0.80 0.82 0.85 0.91 0.96
2.21 1.93 1.53 1.24 1.07 0.96 0.91 0.94 0.99 1.04 1.08 1.12 1.22 1.32 1.33 1.32 1.34 1.37 1.41 1.43 1.48 1.38 1.15 1.07 1.09 1.10 1.08 1.06 1.19 1.22 1.00 1.10 1.01 0.94 0.88 0.85 0.81 0.78 0.76 0.76 0.77 0.75 0.72
1.46 1.24 1.02 0.87 0.79 0.75 0.72 0.69 0.71 0.75 0.80 0.86 0.94 1.04 1.15 1.20 1.21 1.25 1.30 1.34 1.37 1.40 1.31 1.16 1.12 1.10 1.05 1.03 1.19 0.92 0.80 0.98 0.95 0.91 0.87 0.81 0.73 0.66 0.62 0.60 0.59 0.58 0.58
0.87 0.79 0.70 0.67 0.63 0.57 0.56 0.57 0.56 0.57 0.66 0.70 0.72 0.80 0.92 1.04 1.12 1.17 1.24 1.25 1.20 1.18 1.20 1.08 1.00 1.00 0.99 0.94 1.04 0.77 0.74 0.86 0.75 0.70 0.66 0.62 0.57 0.52 0.49 0.49 0.50 0.51 0.49
0.65 0.61 0.55 0.53 0.53 0.53 0.52 0.49 0.50 0.48 0.53 0.64 0.73 0.78 0.84 0.90 0.96 1.00 1.02 1.04 1.11 1.14 1.21 1.21 1.10 1.02 0.95 0.90 0.86 0.74 0.66 0.63 0.62 0.62 0.56 0.51 0.47 0.43 0.40 0.37 0.35 0.35 0.35
0.53 0.52 0.49 0.48 0.48 0.51 0.52 0.51 0.50 0.51 0.52 0.57 0.62 0.65 0.67 0.68 0.74 0.81 0.86 0.87 0.92 0.98 1.06 1.14 1.08 0.95 0.87 0.79 0.71 0.66 0.56 0.50 0.49 0.51 0.47 0.43 0.39 0.35 0.32 0.29 0.26 0.23 0.22
0.49 0.47 0.46 0.46 0.46 0.46 0.47 0.49 0.50 0.49 0.48 0.50 0.51 0.51 0.52 0.53 0.56 0.58 0.62 0.66 0.70 0.74 0.80 0.84 0.86 0.78 0.73 0.65 0.61 0.57 0.50 0.50 0.40 0.39 0.35 0.31 0.28 0.26 0.23 0.21 0.20 0.19 0.17
0.46 0.48 0.47 0.45 0.42 0.38 0.35 0.34 0.34 0.34 0.33 0.34 0.34 0.34 0.38 0.42 0.44 0.44 0.44 0.45 0.49 0.57 0.63 0.69 0.68 0.64 0.59 0.52 0.55 0.54 0.48 0.44 0.38 0.28 0.28 0.23 0.20 0.17 0.15 0.15 0.15 0.13 0.12
0.39 0.38 0.33 0.30 0.25 0.20 0.18 0.18 0.20 0.22 0.23 0.23 0.23 0.22 0.24 0.30 0.35 0.36 0.36 0.39 0.45 0.51 0.54 0.57 0.54 0.50 0.47 0.50 0.51 0.47 0.43 0.38 0.33 0.27 0.30 0.29 0.29 0.30 0.30 0.23 0.17 0.13 0.10
0.31 0.24 0.20 0.18 0.16 0.14 0.14 0.14 0.15 0.19 0.22 0.21 0.22 0.23 0.23 0.25 0.26 0.26 0.30 0.39 0.49 0.51 0.52 0.53 0.50 0.50 0.47 0.47 0.47 0.44 0.44 0.45 0.46 0.34 0.36 0.34 0.31 0.35 0.34 0.31 0.22 0.13 0.10
0.27 0.25 0.19 0.15 0.13 0.12 0.12 0.12 0.13 0.19 0.22 0.23 0.23 0.22 0.20 0.21 0.23 0.23 0.26 0.30 0.35 0.39 0.45 0.52 0.57 0.55 0.55 0.55 0.55 0.52 0.53 0.56 0.54 0.43 0.49 0.47 0.34 0.33 0.25 0.20 0.18 0.12 0.10
0.28 0.28 0.24 0.21 0.17 0.11 0.09 0.10 0.11 0.16 0.20 0.21 0.22 0.24 0.23 0.24 0.24 0.24 0.24 0.25 0.30 0.36 0.38 0.40 0.52 0.53 0.48 0.49 0.54 0.56 0.59 0.60 0.60 0.54 0.56 0.58 0.37 0.31 0.24 0.29 0.25 0.16 0.12
0.27 0.24 0.22 0.22 0.21 0.16 0.09 0.09 0.10 0.16 0.21 0.20 0.19 0.19 0.22 0.24 0.24 0.23 0.25 0.32 0.35 0.40 0.33 0.34 0.41 0.48 0.49 0.49 0.48 0.53 0.68 0.79 0.75 0.57 0.54 0.59 0.46 0.36 0.30 0.33 0.28 0.20 0.15
0.27 0.22 0.19 0.18 0.18 0.17 0.10 0.10 0.12 0.16 0.20 0.19 0.18 0.18 0.19 0.19 0.19 0.18 0.25 0.33 0.42 0.43 0.39 0.43 0.54 0.59 0.59 0.65 0.61 0.62 0.77 0.83 0.78 0.73 0.58 0.58 0.54 0.49 0.46 0.34 0.31 0.30 0.29

GEFSMA_prec_meanprecacc_132.txt.gz
Total_Precipitation_Accumulation
1.28 1.35 1.24 1.17 1.07 1.05 1.04 0.92 0.85 0.79 0.70 0.63 0.52 0.47 0.47 0.44 0.46 0.57 0.62 0.68 0.68 0.88 1.11 1.12 1.00 0.88 0.83 0.81 0.79 0.75 0.67 0.64 0.57 0.49 0.45 0.42 0.41 0.40 0.37 0.37 0.37 0.33 0.31
1.48 1.52 1.48 1.42 1.37 1.38 1.46 1.30 1.10 1.10 0.98 0.95 0.90 0.85 0.77 0.73 0.72 0.78 0.91 0.85 0.74 0.81 1.02 1.20 1.22 1.18 1.16 1.08 1.01 0.89 0.82 0.77 0.72 0.69 0.65 0.58 0.52 0.48 0.46 0.46 0.42 0.39 0.37
1.63 1.68 1.80 1.76 1.69 1.67 1.70 1.66 1.50 1.47 1.36 1.29 1.19 1.04 0.99 1.07 1.08 0.99 1.08 1.15 0.98 0.94 0.94 1.05 1.16 1.24 1.29 1.27 1.24 1.16 1.07 0.98 0.91 0.86 0.81 0.72 0.68 0.65 0.63 0.58 0.52 0.49 0.48
1.77 1.91 1.99 1.99 1.97 1.92 2.02 2.07 1.99 1.79 1.69 1.57 1.45 1.23 1.17 1.23 1.26 1.30 1.29 1.36 1.45 1.34 1.21 1.12 1.13 1.22 1.31 1.35 1.36 1.35 1.27 1.17 1.08 1.01 0.95 0.88 0.84 0.79 0.71 0.65 0.61 0.59 0.56
2.13 2.18 2.27 2.34 2.37 2.41 2.43 2.34 2.37 2.10 2.04 1.95 1.73 1.58 1.39 1.36 1.38 1.33 1.39 1.38 1.44 1.44 1.42 1.35 1.23 1.21 1.32 1.47 1.47 1.50 1.48 1.39 1.27 1.14 1.04 0.97 0.95 0.90 0.81 0.76 0.72 0.68 0.63
2.75 2.83 2.83 2.85 2.82 2.87 2.75 2.69 2.66 2.44 2.27 2.24 1.90 1.74 1.60 1.48 1.45 1.42 1.41 1.41 1.32 1.24 1.27 1.31 1.36 1.26 1.31 1.39 1.42 1.50 1.54 1.58 1.51 1.37 1.27 1.18 1.08 0.96 0.83 0.80 0.76 0.72 0.71
3.72 3.75 3.65 3.55 3.39 3.24 3.09 2.98 2.80 2.63 2.41 2.30 2.16 1.84 1.49 1.28 1.29 1.25 1.27 1.36 1.37 1.30 1.26 1.28 1.27 1.21 1.17 1.20 1.21 1.29 1.42 1.60 1.64 1.57 1.46 1.30 1.10 0.96 0.88 0.84 0.81 0.79 0.78
4.65 4.75 4.62 4.41 4.19 3.81 3.38 3.06 2.85 2.71 2.48 2.41 2.31 2.22 1.76 1.41 1.18 0.99 1.04 1.09 1.13 1.21 1.18 1.12 1.11 1.15 1.15 1.14 1.11 1.14 1.22 1.38 1.55 1.65 1.62 1.47 1.29 1.15 1.06 1.00 0.96 0.93 0.90
4.84 5.00 4.96 4.70 4.33 3.74 3.21 3.01 2.90 2.76 2.61 2.51 2.35 2.38 2.03 1.68 1.39 1.06 0.89 0.84 0.89 0.90 0.91 0.94 0.97 1.04 1.02 1.02 1.00 1.05 1.13 1.22 1.41 1.54 1.49 1.34 1.23 1.18 1.16 1.11 1.08 1.04 1.03
4.66 4.58 4.46 4.06 3.63 3.27 2.98 2.85 2.81 2.61 2.57 2.47 2.37 2.09 1.85 1.63 1.47 1.21 0.99 0.85 0.81 0.78 0.77 0.80 0.85 0.96 1.01 0.99 1.00 1.03 1.06 1.10 1.23 1.30 1.32 1.26 1.19 1.17 1.19 1.20 1.17 1.15 1.15
3.92 3.58 3.25 2.99 2.85 2.65 2.44 2.34 2.31 2.25 2.12 2.03 2.00 1.94 1.85 1.65 1.38 1.19 1.05 0.93 0.91 0.85 0.80 0.81 0.83 0.88 0.93 0.96 0.99 1.09 1.09 1.03 1.05 1.05 1.04 1.04 1.07 1.11 1.13 1.17 1.21 1.24 1.21
3.19 2.77 2.57 2.35 2.20 2.02 1.80 1.68 1.66 1.69 1.75 1.80 1.84 1.80 1.73 1.67 1.53 1.43 1.29 1.11 1.06 1.03 0.93 0.90 0.90 0.92 0.98 1.07 1.17 1.35 1.15 1.05 1.00 0.97 0.92 0.90 0.91 0.96 1.03 1.08 1.15 1.21 1.26
2.88 2.45 2.08 1.89 1.67 1.49 1.39 1.35 1.32 1.31 1.37 1.47 1.59 1.62 1.59 1.56 1.52 1.52 1.51 1.39 1.28 1.16 1.04 1.00 1.02 1.03 1.05 1.13 1.25 1.41 1.21 1.13 1.02 0.93 0.86 0.85 0.86 0.85 0.88 0.93 0.98 1.05 1.12
2.30 1.99 1.59 1.28 1.10 0.98 0.93 0.95 1.00 1.06 1.10 1.14 1.23 1.33 1.35 1.35 1.38 1.42 1.46 1.48 1.52 1.40 1.17 1.09 1.13 1.15 1.12 1.10 1.25 1.29 1.08 1.16 1.06 0.99 0.93 0.90 0.86 0.83 0.82 0.84 0.89 0.91 0.89
1.52 1.30 1.08 0.93 0.83 0.78 0.74 0.71 0.72 0.76 0.82 0.88 0.95 1.06 1.16 1.22 1.24 1.28 1.34 1.38 1.41 1.43 1.32 1.18 1.15 1.13 1.09 1.07 1.24 0.97 0.85 1.03 1.00 0.97 0.93 0.86 0.78 0.71 0.68 0.67 0.67 0.68 0.70
0.90 0.82 0.73 0.70 0.67 0.60 0.57 0.58 0.56 0.57 0.67 0.70 0.72 0.80 0.93 1.05 1.13 1.20 1.26 1.28 1.24 1.21 1.22 1.10 1.03 1.04 1.03 0.98 1.08 0.82 0.79 0.92 0.82 0.77 0.72 0.68 0.63 0.57 0.54 0.55 0.58 0.59 0.58
0.65 0.62 0.56 0.54 0.54 0.54 0.52 0.50 0.50 0.48 0.53 0.65 0.74 0.79 0.84 0.90 0.97 1.01 1.04 1.08 1.14 1.17 1.24 1.23 1.12 1.06 0.99 0.94 0.90 0.78 0.71 0.68 0.68 0.68 0.61 0.56 0.51 0.48 0.46 0.44 0.42 0.42 0.42
0.53 0.52 0.49 0.48 0.49 0.51 0.53 0.51 0.51 0.51 0.52 0.57 0.63 0.66 0.67 0.69 0.75 0.83 0.88 0.90 0.96 1.02 1.11 1.19 1.12 0.99 0.91 0.83 0.76 0.71 0.62 0.55 0.53 0.56 0.51 0.46 0.42 0.39 0.37 0.35 0.32 0.30 0.30
0.49 0.47 0.46 0.46 0.47 0.47 0.47 0.49 0.50 0.49 0.48 0.51 0.52 0.52 0.54 0.56 0.58 0.60 0.64 0.68 0.74 0.78 0.85 0.91 0.93 0.85 0.79 0.69 0.65 0.60 0.53 0.53 0.44 0.44 0.39 0.34 0.31 0.27 0.25 0.24 0.24 0.25 0.24
0.46 0.48 0.48 0.46 0.42 0.38 0.35 0.34 0.35 0.35 0.33 0.35 0.35 0.36 0.42 0.49 0.49 0.49 0.48 0.48 0.52 0.61 0.68 0.74 0.75 0.72 0.66 0.58 0.58 0.57 0.51 0.47 0.41 0.31 0.32 0.26 0.23 0.18 0.17 0.17 0.17 0.16 0.15
0.40 0.38 0.34 0.31 0.25 0.20 0.18 0.18 0.20 0.23 0.23 0.24 0.24 0.23 0.26 0.34 0.42 0.42 0.41 0.43 0.48 0.55 0.58 0.61 0.59 0.56 0.53 0.55 0.55 0.50 0.44 0.40 0.35 0.29 0.33 0.31 0.30 0.31 0.31 0.24 0.18 0.14 0.12
0.31 0.25 0.20 0.18 0.16 0.14 0.14 0.14 0.15 0.20 0.22 0.22 0.22 0.23 0.23 0.26 0.29 0.31 0.36 0.44 0.53 0.54 0.56 0.57 0.54 0.54 0.51 0.50 0.50 0.47 0.46 0.47 0.47 0.36 0.38 0.36 0.32 0.36 0.35 0.32 0.23 0.14 0.10
0.27 0.25 0.19 0.16 0.13 0.12 0.12 0.12 0.13 0.19 0.23 0.23 0.23 0.24 0.21 0.22 0.25 0.25 0.29 0.34 0.40 0.43 0.49 0.58 0.62 0.59 0.58 0.57 0.57 0.54 0.55 0.58 0.56 0.45 0.51 0.49 0.36 0.34 0.26 0.21 0.18 0.13 0.11
0.29 0.28 0.24 0.21 0.17 0.11 0.09 0.10 0.11 0.17 0.21 0.22 0.23 0.24 0.24 0.25 0.26 0.27 0.27 0.28 0.33 0.39 0.41 0.45 0.56 0.56 0.52 0.52 0.56 0.59 0.61 0.63 0.62 0.57 0.59 0.60 0.38 0.32 0.25 0.30 0.25 0.16 0.12
0.27 0.25 0.23 0.22 0.21 0.16 0.10 0.09 0.11 0.17 0.23 0.22 0.20 0.20 0.22 0.25 0.26 0.26 0.28 0.35 0.38 0.42 0.36 0.39 0.47 0.52 0.53 0.53 0.51 0.56 0.71 0.82 0.77 0.60 0.56 0.60 0.47 0.37 0.31 0.33 0.29 0.21 0.16
0.27 0.22 0.19 0.19 0.18 0.17 0.11 0.10 0.13 0.17 0.22 0.21 0.20 0.19 0.19 0.20 0.21 0.21 0.27 0.36 0.44 0.45 0.41 0.46 0.58 0.64 0.63 0.69 0.64 0.65 0.81 0.86 0.80 0.74 0.60 0.59 0.54 0.50 0.47 0.34 0.32 0.30 0.29

GEFSMA_prec_meanprecacc_138.txt.gz
Total_Precipitation_Accumulation
1.34 1.41 1.30 1.22 1.14 1.12 1.09 0.96 0.89 0.85 0.75 0.68 0.56 0.51 0.51 0.48 0.50 0.60 0.66 0.74 0.76 0.98 1.25 1.29 1.16 1.00 0.96 0.93 0.92 0.85 0.74 0.70 0.63 0.55 0.49 0.46 0.44 0.43 0.40 0.39 0.39 0.35 0.33
1.54 1.59 1.56 1.50 1.45 1.47 1.56 1.38 1.18 1.18 1.07 1.03 0.96 0.91 0.82 0.78 0.77 0.82 0.96 0.91 0.81 0.90 1.15 1.36 1.40 1.34 1.30 1.22 1.15 1.03 0.92 0.86 0.82 0.79 0.73 0.65 0.57 0.52 0.49 0.48 0.44 0.41 0.38
1.71 1.77 1.90 1.85 1.78 1.76 1.81 1.76 1.60 1.57 1.45 1.37 1.26 1.10 1.04 1.13 1.13 1.04 1.13 1.21 1.04 1.03 1.04 1.18 1.31 1.39 1.43 1.41 1.36 1.28 1.17 1.08 1.01 0.96 0.90 0.81 0.76 0.72 0.68 0.63 0.56 0.53 0.51
1.85 2.00 2.09 2.09 2.05 2.00 2.10 2.18 2.10 1.91 1.80 1.66 1.52 1.29 1.21 1.28 1.32 1.35 1.35 1.43 1.52 1.41 1.30 1.22 1.26 1.34 1.46 1.50 1.51 1.49 1.40 1.28 1.17 1.10 1.05 0.98 0.94 0.89 0.79 0.70 0.67 0.65 0.63
2.22 2.27 2.38 2.46 2.46 2.49 2.51 2.44 2.48 2.22 2.16 2.05 1.79 1.63 1.43 1.40 1.43 1.40 1.46 1.43 1.49 1.48 1.47 1.41 1.32 1.32 1.45 1.63 1.62 1.65 1.62 1.52 1.40 1.25 1.15 1.08 1.07 1.02 0.91 0.83 0.78 0.73 0.69
2.89 2.96 2.93 2.96 2.92 2.97 2.84 2.78 2.74 2.52 2.34 2.31 1.98 1.81 1.66 1.53 1.51 1.48 1.47 1.46 1.36 1.29 1.33 1.38 1.43 1.33 1.41 1.51 1.55 1.66 1.71 1.76 1.68 1.52 1.41 1.31 1.20 1.07 0.94 0.88 0.83 0.79 0.77
3.87 3.89 3.76 3.65 3.49 3.34 3.17 3.05 2.87 2.69 2.47 2.37 2.23 1.90 1.54 1.33 1.35 1.30 1.32 1.43 1.43 1.35 1.31 1.33 1.34 1.28 1.24 1.28 1.32 1.44 1.60 1.79 1.84 1.75 1.64 1.48 1.26 1.09 1.00 0.93 0.89 0.86 0.85
4.75 4.84 4.73 4.51 4.29 3.92 3.48 3.14 2.94 2.79 2.55 2.48 2.37 2.28 1.81 1.46 1.22 1.02 1.08 1.13 1.18 1.26 1.22 1.17 1.16 1.20 1.20 1.19 1.15 1.22 1.33 1.50 1.70 1.82 1.80 1.63 1.44 1.28 1.17 1.10 1.05 1.01 0.97
4.89 5.06 5.04 4.79 4.41 3.83 3.32 3.12 3.01 2.88 2.71 2.61 2.44 2.46 2.09 1.73 1.43 1.09 0.92 0.87 0.92 0.94 0.95 0.99 1.02 1.08 1.05 1.05 1.03 1.10 1.20 1.31 1.52 1.68 1.62 1.46 1.35 1.28 1.26 1.22 1.18 1.15 1.14
4.69 4.62 4.51 4.12 3.68 3.33 3.04 2.93 2.89 2.70 2.67 2.56 2.46 2.16 1.93 1.69 1.52 1.26 1.02 0.87 0.84 0.81 0.81 0.83 0.89 0.99 1.05 1.02 1.02 1.06 1.10 1.16 1.30 1.39 1.43 1.38 1.29 1.27 1.30 1.32 1.31 1.29 1.29
3.94 3.61 3.29 3.03 2.90 2.70 2.49 2.39 2.36 2.31 2.19 2.09 2.06 2.00 1.92 1.71 1.43 1.24 1.10 0.97 0.94 0.87 0.83 0.84 0.86 0.91 0.97 0.99 1.02 1.12 1.13 1.09 1.12 1.12 1.13 1.15 1.17 1.21 1.24 1.30 1.35 1.39 1.37
3.22 2.80 2.58 2.37 2.23 2.05 1.83 1.71 1.70 1.74 1.81 1.86 1.89 1.85 1.78 1.73 1.58 1.47 1.34 1.15 1.10 1.07 0.96 0.92 0.93 0.96 1.02 1.10 1.20 1.40 1.19 1.09 1.06 1.06 1.02 0.99 1.00 1.05 1.14 1.21 1.28 1.35 1.43
2.91 2.48 2.11 1.91 1.69 1.51 1.41 1.36 1.34 1.35 1.41 1.51 1.64 1.66 1.63 1.59 1.55 1.55 1.54 1.42 1.30 1.19 1.06 1.02 1.04 1.05 1.09 1.16 1.29 1.47 1.28 1.20 1.10 1.01 0.94 0.92 0.93 0.93 0.96 1.02 1.07 1.15 1.23
2.33 2.02 1.61 1.31 1.13 1.01 0.95 0.97 1.01 1.07 1.11 1.16 1.26 1.36 1.38 1.37 1.40 1.43 1.48 1.51 1.55 1.42 1.19 1.11 1.15 1.17 1.15 1.14 1.31 1.36 1.14 1.23 1.13 1.06 1.00 0.96 0.91 0.88 0.89 0.91 0.97 1.00 0.98
1.53 1.32 1.10 0.96 0.87 0.82 0.77 0.73 0.74 0.78 0.83 0.89 0.97 1.07 1.18 1.24 1.26 1.30 1.36 1.41 1.44 1.46 1.35 1.19 1.16 1.14 1.11 1.10 1.28 1.01 0.89 1.07 1.04 1.02 0.99 0.92 0.83 0.78 0.75 0.74 0.74 0.75 0.77
0.90 0.84 0.75 0.72 0.69 0.64 0.62 0.62 0.60 0.60 0.69 0.72 0.74 0.82 0.94 1.06 1.14 1.21 1.28 1.30 1.26 1.24 1.26 1.12 1.04 1.05 1.05 1.00 1.11 0.84 0.82 0.96 0.88 0.84 0.81 0.79 0.75 0.69 0.64 0.63 0.64 0.65 0.63
0.65 0.62 0.57 0.55 0.56 0.56 0.54 0.52 0.54 0.52 0.57 0.67 0.76 0.80 0.86 0.92 0.98 1.01 1.05 1.09 1.16 1.19 1.27 1.26 1.14 1.08 1.03 0.97 0.93 0.80 0.73 0.71 0.73 0.76 0.72 0.69 0.64 0.59 0.55 0.51 0.48 0.47 0.46
0.53 0.52 0.49 0.49 0.50 0.52 0.53 0.52 0.51 0.52 0.54 0.60 0.66 0.68 0.68 0.69 0.76 0.84 0.88 0.90 0.97 1.03 1.12 1.21 1.15 1.02 0.95 0.87 0.79 0.74 0.65 0.58 0.58 0.63 0.58 0.54 0.50 0.46 0.43 0.40 0.36 0.35 0.34
0.49 0.48 0.47 0.47 0.48 0.48 0.48 0.50 0.50 0.50 0.48 0.51 0.53 0.53 0.55 0.57 0.58 0.61 0.64 0.69 0.74 0.79 0.87 0.93 0.95 0.89 0.84 0.75 0.70 0.64 0.57 0.57 0.48 0.49 0.45 0.41 0.36 0.32 0.28 0.27 0.27 0.28 0.28
0.46 0.48 0.48 0.46 0.43 0.39 0.36 0.34 0.35 0.35 0.34 0.35 0.35 0.37 0.42 0.49 0.49 0.49 0.49 0.49 0.53 0.62 0.70 0.76 0.78 0.77 0.75 0.68 0.67 0.63 0.56 0.51 0.44 0.35 0.36 0.31 0.27 0.22 0.21 0.20 0.20 0.20 0.19
0.40 0.38 0.34 0.31 0.26 0.21 0.19 0.18 0.20 0.23 0.23 0.24 0.24 0.24 0.27 0.35 0.43 0.43 0.42 0.44 0.50 0.56 0.60 0.63 0.62 0.59 0.59 0.64 0.65 0.57 0.50 0.44 0.39 0.32 0.35 0.34 0.33 0.35 0.35 0.28 0.21 0.17 0.14
0.32 0.25 0.20 0.18 0.17 0.14 0.14 0.14 0.15 0.20 0.22 0.22 0.22 0.23 0.24 0.27 0.31 0.33 0.38 0.47 0.56 0.57 0.58 0.59 0.56 0.56 0.54 0.55 0.56 0.54 0.52 0.51 0.50 0.38 0.39 0.37 0.34 0.39 0.38 0.35 0.26 0.16 0.12
0.28 0.25 0.19 0.16 0.13 0.12 0.12 0.12 0.14 0.19 0.23 0.24 0.24 0.24 0.22 0.23 0.26 0.27 0.32 0.39 0.44 0.47 0.53 0.61 0.64 0.61 0.61 0.61 0.62 0.59 0.60 0.61 0.58 0.47 0.52 0.50 0.37 0.36 0.28 0.23 0.21 0.15 0.12
0.30 0.29 0.24 0.21 0.17 0.12 0.10 0.10 0.11 0.17 0.21 0.22 0.24 0.25 0.25 0.26 0.27 0.29 0.29 0.31 0.37 0.43 0.45 0.48 0.61 0.61 0.57 0.58 0.62 0.63 0.65 0.65 0.64 0.59 0.60 0.61 0.39 0.33 0.25 0.31 0.27 0.17 0.13
0.28 0.25 0.23 0.22 0.21 0.16 0.10 0.09 0.11 0.18 0.23 0.22 0.21 0.21 0.23 0.25 0.27 0.28 0.30 0.37 0.41 0.45 0.39 0.44 0.54 0.61 0.63 0.62 0.58 0.60 0.74 0.84 0.79 0.61 0.58 0.61 0.48 0.38 0.32 0.33 0.30 0.21 0.17
0.28 0.23 0.20 0.19 0.18 0.17 0.11 0.11 0.13 0.18 0.23 0.22 0.21 0.21 0.21 0.21 0.22 0.22 0.29 0.38 0.47 0.47 0.44 0.49 0.63 0.71 0.70 0.74 0.69 0.70 0.85 0.89 0.82 0.76 0.61 0.59 0.55 0.51 0.48 0.35 0.32 0.30 0.29

GEFSMA_prec_meanprecacc_144.txt.gz
Total_Precipitation_Accumulation
1.43 1.52 1.42 1.35 1.28 1.26 1.22 1.08 1.01 0.95 0.84 0.75 0.60 0.54 0.54 0.50 0.54 0.66 0.70 0.77 0.79 1.03 1.35 1.45 1.34 1.17 1.10 1.06 1.07 1.00 0.87 0.80 0.71 0.63 0.56 0.51 0.49 0.47 0.44 0.43 0.42 0.38 0.36
1.62 1.69 1.67 1.63 1.60 1.61 1.70 1.51 1.30 1.30 1.17 1.11 1.03 0.98 0.89 0.85 0.84 0.91 1.03 0.97 0.85 0.95 1.23 1.48 1.54 1.49 1.46 1.39 1.32 1.18 1.07 0.98 0.92 0.87 0.81 0.72 0.64 0.58 0.54 0.52 0.49 0.45 0.42
1.77 1.84 2.00 1.96 1.90 1.87 1.91 1.88 1.71 1.68 1.54 1.44 1.35 1.20 1.15 1.22 1.22 1.13 1.22 1.31 1.12 1.08 1.10 1.26 1.42 1.51 1.58 1.59 1.54 1.45 1.32 1.21 1.13 1.07 1.01 0.91 0.84 0.79 0.76 0.69 0.62 0.59 0.57
1.91 2.07 2.17 2.18 2.16 2.09 2.19 2.29 2.21 2.00 1.89 1.75 1.61 1.38 1.30 1.37 1.41 1.43 1.43 1.53 1.62 1.48 1.37 1.29 1.33 1.43 1.56 1.65 1.65 1.67 1.58 1.42 1.29 1.22 1.16 1.09 1.04 0.97 0.87 0.78 0.74 0.72 0.69
2.28 2.34 2.45 2.54 2.56 2.60 2.61 2.53 2.57 2.33 2.27 2.15 1.88 1.70 1.50 1.47 1.52 1.47 1.53 1.51 1.57 1.57 1.55 1.49 1.39 1.39 1.54 1.74 1.75 1.81 1.80 1.69 1.56 1.40 1.27 1.17 1.15 1.11 1.01 0.93 0.87 0.82 0.76
2.98 3.05 3.02 3.05 3.03 3.08 2.95 2.89 2.86 2.65 2.47 2.43 2.08 1.90 1.74 1.60 1.58 1.55 1.53 1.51 1.41 1.35 1.41 1.46 1.53 1.40 1.48 1.61 1.67 1.79 1.87 1.94 1.87 1.69 1.56 1.44 1.32 1.20 1.07 1.01 0.93 0.86 0.82
3.95 3.99 3.87 3.76 3.61 3.48 3.30 3.18 2.98 2.81 2.59 2.49 2.36 2.04 1.66 1.42 1.41 1.34 1.36 1.47 1.47 1.39 1.37 1.40 1.41 1.37 1.33 1.36 1.39 1.53 1.72 1.94 2.02 1.94 1.82 1.65 1.44 1.27 1.16 1.08 1.00 0.94 0.90
4.80 4.91 4.81 4.62 4.39 4.04 3.61 3.28 3.08 2.93 2.68 2.62 2.55 2.45 1.95 1.57 1.30 1.07 1.12 1.18 1.24 1.31 1.26 1.21 1.21 1.27 1.26 1.26 1.21 1.26 1.39 1.60 1.84 2.00 1.98 1.82 1.65 1.48 1.34 1.25 1.17 1.09 1.03
4.92 5.10 5.08 4.85 4.49 3.94 3.44 3.27 3.17 3.03 2.85 2.73 2.57 2.62 2.25 1.86 1.53 1.16 0.97 0.91 0.96 0.99 0.99 1.02 1.05 1.11 1.10 1.13 1.10 1.14 1.22 1.36 1.61 1.82 1.78 1.61 1.51 1.45 1.41 1.37 1.31 1.24 1.20
4.72 4.64 4.53 4.16 3.72 3.39 3.14 3.04 3.00 2.81 2.79 2.69 2.59 2.29 2.06 1.83 1.64 1.35 1.08 0.92 0.87 0.85 0.85 0.87 0.92 1.03 1.10 1.09 1.09 1.10 1.12 1.19 1.35 1.49 1.55 1.49 1.40 1.37 1.40 1.42 1.41 1.38 1.37
3.95 3.62 3.30 3.05 2.92 2.73 2.53 2.45 2.43 2.38 2.26 2.18 2.16 2.10 2.02 1.81 1.54 1.35 1.19 1.03 0.98 0.90 0.86 0.88 0.91 0.96 1.02 1.05 1.09 1.17 1.16 1.12 1.17 1.19 1.22 1.24 1.25 1.29 1.32 1.39 1.45 1.48 1.47
3.23 2.81 2.59 2.38 2.25 2.08 1.87 1.75 1.74 1.79 1.86 1.93 1.98 1.94 1.88 1.83 1.68 1.58 1.43 1.23 1.16 1.10 0.99 0.95 0.97 0.99 1.06 1.14 1.24 1.45 1.23 1.13 1.13 1.13 1.08 1.06 1.08 1.12 1.21 1.30 1.37 1.43 1.50
2.93 2.51 2.14 1.94 1.72 1.54 1.45 1.40 1.37 1.37 1.44 1.55 1.69 1.74 1.71 1.67 1.63 1.63 1.62 1.50 1.36 1.24 1.09 1.05 1.06 1.07 1.11 1.19 1.32 1.51 1.32 1.25 1.16 1.06 1.00 0.97 0.98 0.98 1.02 1.09 1.16 1.23 1.30
2.36 2.04 1.64 1.35 1.17 1.06 0.99 1.00 1.04 1.10 1.13 1.18 1.28 1.40 1.43 1.42 1.45 1.50 1.56 1.59 1.60 1.46 1.22 1.14 1.18 1.20 1.17 1.17 1.35 1.41 1.20 1.29 1.17 1.09 1.03 0.99 0.95 0.92 0.93 0.97 1.06 1.13 1.12
1.56 1.34 1.12 0.97 0.89 0.86 0.81 0.76 0.78 0.80 0.85 0.91 0.98 1.09 1.21 1.28 1.30 1.35 1.43 1.48 1.51 1.51 1.39 1.22 1.18 1.17 1.14 1.13 1.31 1.04 0.93 1.12 1.08 1.05 1.01 0.94 0.87 0.82 0.81 0.82 0.84 0.88 0.90
0.94 0.86 0.77 0.74 0.71 0.66 0.64 0.65 0.63 0.62 0.71 0.75 0.76 0.84 0.96 1.08 1.17 1.24 1.32 1.35 1.32 1.30 1.31 1.16 1.08 1.09 1.09 1.04 1.14 0.86 0.85 1.01 0.93 0.88 0.84 0.81 0.79 0.74 0.72 0.73 0.76 0.77 0.74
0.68 0.64 0.59 0.57 0.57 0.58 0.57 0.55 0.56 0.54 0.59 0.70 0.78 0.83 0.88 0.93 1.00 1.04 1.07 1.12 1.19 1.23 1.30 1.30 1.18 1.12 1.08 1.01 0.96 0.82 0.75 0.74 0.77 0.80 0.75 0.72 0.67 0.63 0.60 0.58 0.55 0.53 0.52
0.56 0.54 0.51 0.51 0.51 0.54 0.55 0.54 0.53 0.54 0.55 0.61 0.67 0.71 0.72 0.72 0.79 0.86 0.91 0.93 1.00 1.06 1.15 1.24 1.18 1.06 1.00 0.93 0.85 0.79 0.69 0.62 0.61 0.67 0.62 0.57 0.53 0.50 0.47 0.44 0.40 0.38 0.36
0.52 0.49 0.48 0.48 0.49 0.50 0.49 0.51 0.51 0.51 0.49 0.53 0.54 0.55 0.58 0.60 0.62 0.64 0.67 0.72 0.77 0.82 0.90 0.96 0.99 0.92 0.87 0.78 0.75 0.70 0.62 0.63 0.53 0.55 0.51 0.46 0.41 0.37 0.32 0.29 0.29 0.29 0.29
0.50 0.51 0.50 0.47 0.44 0.41 0.37 0.35 0.35 0.36 0.34 0.36 0.36 0.38 0.45 0.52 0.52 0.52 0.51 0.51 0.55 0.65 0.73 0.80 0.82 0.80 0.77 0.70 0.70 0.67 0.60 0.55 0.49 0.39 0.41 0.36 0.31 0.27 0.26 0.25 0.23 0.22 0.21
0.43 0.41 0.36 0.33 0.27 0.22 0.20 0.18 0.21 0.23 0.24 0.25 0.25 0.25 0.28 0.37 0.45 0.45 0.43 0.46 0.52 0.58 0.62 0.66 0.65 0.61 0.60 0.65 0.67 0.60 0.54 0.48 0.42 0.35 0.38 0.37 0.36 0.38 0.40 0.34 0.26 0.20 0.17
0.36 0.27 0.22 0.20 0.18 0.15 0.14 0.14 0.15 0.21 0.23 0.23 0.24 0.24 0.25 0.28 0.32 0.34 0.40 0.49 0.58 0.58 0.60 0.62 0.58 0.57 0.55 0.56 0.57 0.56 0.56 0.55 0.54 0.40 0.41 0.39 0.36 0.40 0.40 0.38 0.30 0.20 0.15
0.32 0.28 0.22 0.17 0.15 0.13 0.12 0.12 0.14 0.20 0.24 0.25 0.26 0.26 0.24 0.24 0.28 0.29 0.34 0.41 0.46 0.49 0.55 0.64 0.67 0.63 0.62 0.62 0.63 0.61 0.63 0.65 0.61 0.49 0.54 0.52 0.38 0.37 0.28 0.24 0.23 0.18 0.15
0.34 0.32 0.27 0.23 0.19 0.13 0.10 0.10 0.11 0.18 0.23 0.24 0.25 0.27 0.27 0.29 0.29 0.31 0.31 0.33 0.39 0.46 0.48 0.52 0.64 0.63 0.59 0.60 0.64 0.66 0.68 0.69 0.67 0.62 0.63 0.63 0.41 0.35 0.26 0.31 0.28 0.18 0.15
0.33 0.29 0.26 0.24 0.24 0.18 0.10 0.09 0.11 0.20 0.26 0.24 0.22 0.22 0.25 0.28 0.30 0.30 0.33 0.40 0.45 0.49 0.43 0.47 0.57 0.64 0.66 0.65 0.61 0.63 0.77 0.88 0.82 0.64 0.59 0.63 0.50 0.40 0.33 0.34 0.30 0.22 0.17
0.33 0.26 0.22 0.21 0.21 0.19 0.11 0.11 0.14 0.20 0.27 0.24 0.23 0.23 0.22 0.23 0.24 0.24 0.32 0.42 0.51 0.52 0.46 0.52 0.66 0.74 0.72 0.77 0.73 0.73 0.88 0.92 0.85 0.78 0.62 0.61 0.57 0.53 0.50 0.36 0.33 0.31 0.30

GEFSMA_prec_meanprecacc_150.txt.gz
Total_Precipitation_Accumulation
1.54 1.63 1.52 1.47 1.39 1.38 1.35 1.21 1.14 1.09 0.96 0.85 0.68 0.61 0.60 0.53 0.58 0.74 0.79 0.84 0.85 1.09 1.41 1.52 1.41 1.24 1.19 1.15 1.16 1.09 0.95 0.86 0.76 0.68 0.60 0.54 0.52 0.51 0.47 0.46 0.46 0.42 0.39
1.73 1.80 1.79 1.77 1.72 1.73 1.80 1.61 1.41 1.45 1.31 1.26 1.13 1.04 0.93 0.88 0.87 0.94 1.09 1.08 0.94 1.02 1.30 1.56 1.63 1.57 1.55 1.50 1.42 1.28 1.15 1.06 0.99 0.93 0.86 0.77 0.69 0.62 0.57 0.55 0.52 0.48 0.46
1.86 1.94 2.11 2.08 2.01 1.98 2.03 2.01 1.85 1.85 1.69 1.59 1.48 1.31 1.23 1.29 1.27 1.18 1.30 1.46 1.26 1.21 1.20 1.35 1.50 1.61 1.70 1.72 1.67 1.56 1.42 1.30 1.21 1.15 1.09 0.99 0.91 0.84 0.80 0.72 0.66 0.62 0.61
1.98 2.17 2.28 2.30 2.28 2.20 2.30 2.43 2.38 2.19 2.07 1.91 1.75 1.49 1.39 1.48 1.50 1.49 1.50 1.63 1.75 1.62 1.53 1.39 1.41 1.50 1.65 1.75 1.77 1.79 1.70 1.53 1.39 1.31 1.26 1.18 1.11 1.02 0.91 0.82 0.78 0.77 0.75
2.36 2.44 2.58 2.67 2.68 2.71 2.72 2.62 2.74 2.53 2.47 2.32 2.01 1.82 1.61 1.56 1.61 1.54 1.61 1.59 1.68 1.71 1.72 1.62 1.48 1.47 1.62 1.83 1.85 1.92 1.92 1.82 1.70 1.54 1.40 1.30 1.27 1.19 1.06 0.99 0.93 0.88 0.82
3.03 3.11 3.10 3.15 3.14 3.19 3.06 3.01 2.99 2.80 2.64 2.61 2.22 2.04 1.88 1.71 1.67 1.62 1.60 1.60 1.53 1.45 1.53 1.61 1.66 1.48 1.55 1.67 1.75 1.88 1.99 2.10 2.01 1.84 1.72 1.59 1.47 1.31 1.15 1.08 1.00 0.93 0.90
4.01 4.06 3.96 3.86 3.71 3.58 3.39 3.28 3.11 2.93 2.71 2.63 2.51 2.19 1.78 1.52 1.50 1.43 1.44 1.54 1.54 1.48 1.49 1.54 1.56 1.48 1.41 1.42 1.43 1.58 1.80 2.08 2.20 2.12 1.97 1.80 1.59 1.42 1.29 1.20 1.12 1.06 1.00
4.87 4.98 4.90 4.71 4.49 4.15 3.72 3.39 3.20 3.04 2.79 2.74 2.70 2.61 2.08 1.69 1.40 1.15 1.20 1.26 1.31 1.40 1.37 1.33 1.38 1.45 1.40 1.38 1.28 1.31 1.45 1.68 1.97 2.16 2.14 1.97 1.80 1.62 1.50 1.41 1.34 1.26 1.16
5.01 5.18 5.16 4.91 4.54 4.01 3.53 3.36 3.28 3.15 2.97 2.87 2.73 2.78 2.39 2.00 1.66 1.26 1.05 0.98 1.05 1.09 1.09 1.12 1.17 1.25 1.24 1.29 1.23 1.22 1.28 1.41 1.68 1.92 1.89 1.71 1.61 1.56 1.52 1.49 1.43 1.35 1.29
4.83 4.73 4.60 4.20 3.75 3.42 3.17 3.09 3.08 2.91 2.89 2.81 2.72 2.43 2.21 1.98 1.79 1.48 1.17 1.00 0.95 0.93 0.94 0.95 1.01 1.15 1.21 1.22 1.20 1.19 1.18 1.25 1.40 1.56 1.64 1.58 1.49 1.46 1.49 1.53 1.51 1.48 1.46
4.06 3.71 3.37 3.09 2.95 2.75 2.55 2.47 2.47 2.44 2.33 2.28 2.28 2.22 2.13 1.93 1.67 1.48 1.29 1.11 1.04 0.95 0.93 0.95 1.00 1.07 1.14 1.18 1.23 1.28 1.24 1.18 1.21 1.24 1.29 1.33 1.35 1.38 1.40 1.47 1.54 1.58 1.56
3.33 2.88 2.65 2.43 2.29 2.11 1.90 1.78 1.77 1.83 1.91 1.98 2.05 2.03 1.98 1.93 1.79 1.69 1.55 1.33 1.23 1.17 1.05 1.01 1.05 1.11 1.20 1.27 1.35 1.54 1.31 1.19 1.18 1.17 1.14 1.14 1.16 1.20 1.28 1.36 1.44 1.51 1.59
3.02 2.57 2.18 1.98 1.75 1.58 1.49 1.43 1.40 1.40 1.48 1.59 1.73 1.79 1.78 1.75 1.71 1.72 1.73 1.60 1.45 1.31 1.15 1.10 1.11 1.14 1.18 1.29 1.41 1.58 1.38 1.30 1.20 1.10 1.04 1.01 1.02 1.03 1.08 1.15 1.23 1.31 1.39
2.45 2.12 1.70 1.39 1.20 1.08 1.02 1.04 1.09 1.14 1.17 1.22 1.32 1.45 1.48 1.47 1.51 1.57 1.65 1.69 1.70 1.52 1.26 1.17 1.23 1.25 1.24 1.24 1.42 1.48 1.26 1.34 1.20 1.11 1.06 1.02 0.97 0.95 0.98 1.04 1.15 1.23 1.22
1.66 1.43 1.19 1.03 0.93 0.89 0.84 0.81 0.82 0.85 0.89 0.95 1.02 1.13 1.25 1.31 1.34 1.40 1.49 1.57 1.62 1.60 1.45 1.27 1.24 1.23 1.23 1.24 1.39 1.11 1.00 1.17 1.12 1.08 1.04 0.97 0.90 0.86 0.86 0.87 0.91 0.96 0.99
1.01 0.93 0.84 0.79 0.75 0.70 0.69 0.70 0.68 0.67 0.76 0.79 0.80 0.87 0.99 1.11 1.19 1.27 1.36 1.41 1.41 1.39 1.39 1.23 1.15 1.15 1.14 1.11 1.22 0.93 0.91 1.05 0.97 0.92 0.88 0.86 0.83 0.78 0.76 0.77 0.80 0.81 0.80
0.74 0.70 0.65 0.62 0.61 0.61 0.60 0.59 0.60 0.58 0.63 0.74 0.82 0.86 0.90 0.96 1.03 1.07 1.11 1.16 1.25 1.30 1.38 1.37 1.24 1.17 1.12 1.07 1.02 0.88 0.80 0.78 0.81 0.85 0.80 0.77 0.72 0.69 0.64 0.60 0.57 0.55 0.55
0.62 0.60 0.57 0.55 0.55 0.56 0.58 0.57 0.56 0.56 0.58 0.64 0.70 0.74 0.75 0.75 0.81 0.89 0.95 0.98 1.04 1.11 1.20 1.31 1.23 1.10 1.05 1.00 0.92 0.86 0.73 0.64 0.64 0.69 0.65 0.60 0.58 0.54 0.50 0.46 0.42 0.39 0.38
0.57 0.53 0.52 0.52 0.52 0.53 0.52 0.54 0.54 0.53 0.52 0.56 0.57 0.58 0.61 0.63 0.65 0.68 0.71 0.76 0.82 0.86 0.95 1.01 1.02 0.95 0.92 0.85 0.81 0.74 0.66 0.66 0.56 0.58 0.54 0.50 0.46 0.41 0.35 0.31 0.30 0.30 0.30
0.55 0.55 0.54 0.51 0.47 0.44 0.39 0.37 0.37 0.38 0.37 0.39 0.40 0.41 0.47 0.54 0.55 0.56 0.54 0.56 0.61 0.70 0.78 0.84 0.85 0.84 0.81 0.74 0.74 0.71 0.64 0.58 0.52 0.42 0.44 0.40 0.36 0.32 0.30 0.28 0.25 0.23 0.23
0.47 0.44 0.40 0.36 0.29 0.23 0.21 0.19 0.22 0.25 0.27 0.28 0.29 0.28 0.30 0.38 0.46 0.46 0.45 0.49 0.55 0.63 0.66 0.70 0.69 0.66 0.64 0.69 0.71 0.63 0.58 0.52 0.47 0.37 0.40 0.40 0.39 0.41 0.44 0.39 0.30 0.23 0.19
0.41 0.31 0.26 0.24 0.21 0.16 0.15 0.14 0.16 0.23 0.26 0.27 0.28 0.28 0.28 0.30 0.33 0.35 0.40 0.50 0.60 0.61 0.63 0.66 0.63 0.62 0.60 0.60 0.61 0.61 0.60 0.60 0.60 0.45 0.44 0.41 0.38 0.43 0.42 0.40 0.33 0.23 0.17
0.39 0.34 0.27 0.21 0.18 0.16 0.13 0.13 0.14 0.22 0.28 0.29 0.30 0.31 0.27 0.27 0.30 0.32 0.36 0.42 0.48 0.50 0.57 0.68 0.73 0.68 0.67 0.67 0.68 0.65 0.68 0.70 0.67 0.56 0.59 0.56 0.40 0.39 0.30 0.25 0.24 0.19 0.17
0.43 0.41 0.33 0.28 0.24 0.16 0.10 0.10 0.12 0.20 0.29 0.30 0.31 0.32 0.33 0.33 0.32 0.34 0.35 0.37 0.44 0.49 0.52 0.56 0.68 0.67 0.62 0.64 0.69 0.70 0.72 0.73 0.71 0.67 0.69 0.69 0.45 0.37 0.28 0.33 0.28 0.19 0.16
0.41 0.36 0.32 0.30 0.31 0.23 0.11 0.10 0.12 0.24 0.33 0.30 0.26 0.25 0.28 0.31 0.32 0.32 0.36 0.45 0.50 0.54 0.46 0.49 0.59 0.65 0.67 0.67 0.64 0.67 0.80 0.91 0.86 0.68 0.64 0.68 0.53 0.42 0.35 0.36 0.31 0.23 0.18
0.41 0.33 0.28 0.28 0.28 0.25 0.14 0.12 0.15 0.25 0.34 0.31 0.28 0.26 0.24 0.24 0.26 0.26 0.35 0.47 0.56 0.57 0.51 0.54 0.68 0.75 0.73 0.79 0.75 0.76 0.92 0.96 0.90 0.84 0.67 0.65 0.61 0.55 0.53 0.38 0.34 0.31 0.30

GEFSMA_prec_meanprecacc_156.txt.gz
Total_Precipitation_Accumulation
1.58 1.67 1.59 1.57 1.47 1.44 1.40 1.26 1.20 1.16 1.05 0.95 0.75 0.70 0.74 0.68 0.73 0.91 0.95 0.99 1.00 1.23 1.55 1.68 1.54 1.33 1.27 1.23 1.24 1.17 1.02 0.92 0.82 0.71 0.63 0.58 0.55 0.54 0.50 0.48 0.48 0.43 0.41
1.80 1.85 1.83 1.83 1.79 1.77 1.84 1.66 1.48 1.55 1.41 1.34 1.19 1.12 1.06 1.04 1.06 1.14 1.31 1.25 1.07 1.14 1.42 1.70 1.75 1.67 1.65 1.59 1.50 1.34 1.22 1.12 1.04 0.98 0.91 0.81 0.73 0.66 0.62 0.59 0.55 0.50 0.48
1.93 2.00 2.16 2.11 2.04 2.01 2.07 2.05 1.92 1.92 1.76 1.65 1.53 1.38 1.32 1.39 1.39 1.35 1.49 1.61 1.39 1.33 1.35 1.48 1.63 1.72 1.79 1.80 1.75 1.64 1.48 1.36 1.27 1.21 1.16 1.06 0.96 0.89 0.85 0.76 0.68 0.65 0.64
2.05 2.24 2.34 2.33 2.31 2.23 2.34 2.47 2.42 2.25 2.13 1.96 1.81 1.57 1.47 1.56 1.61 1.62 1.64 1.77 1.89 1.74 1.63 1.50 1.52 1.61 1.76 1.84 1.85 1.87 1.77 1.60 1.45 1.38 1.33 1.26 1.19 1.08 0.97 0.86 0.81 0.80 0.78
2.43 2.51 2.63 2.71 2.73 2.77 2.78 2.68 2.80 2.60 2.53 2.37 2.07 1.87 1.66 1.60 1.67 1.62 1.70 1.70 1.80 1.83 1.82 1.72 1.58 1.58 1.73 1.94 1.95 2.02 2.01 1.91 1.79 1.63 1.49 1.39 1.36 1.27 1.12 1.03 0.97 0.91 0.87
3.11 3.17 3.15 3.19 3.21 3.27 3.14 3.09 3.08 2.87 2.70 2.65 2.26 2.08 1.92 1.76 1.73 1.69 1.66 1.67 1.62 1.54 1.62 1.70 1.74 1.58 1.67 1.78 1.85 1.98 2.09 2.21 2.13 1.95 1.83 1.71 1.59 1.42 1.23 1.13 1.04 0.97 0.94
4.08 4.12 4.02 3.92 3.78 3.66 3.47 3.35 3.17 3.00 2.77 2.69 2.57 2.24 1.83 1.59 1.57 1.50 1.51 1.62 1.62 1.54 1.56 1.64 1.68 1.60 1.50 1.51 1.52 1.66 1.89 2.18 2.32 2.26 2.13 1.97 1.74 1.55 1.40 1.28 1.19 1.11 1.04
4.96 5.08 5.00 4.80 4.57 4.24 3.81 3.47 3.27 3.11 2.85 2.81 2.77 2.67 2.14 1.75 1.48 1.22 1.28 1.34 1.38 1.47 1.45 1.44 1.51 1.59 1.52 1.47 1.34 1.38 1.53 1.79 2.08 2.30 2.30 2.13 1.95 1.78 1.66 1.55 1.45 1.35 1.24
5.13 5.30 5.28 5.03 4.66 4.11 3.62 3.43 3.34 3.21 3.02 2.93 2.79 2.83 2.43 2.05 1.72 1.33 1.13 1.06 1.12 1.15 1.16 1.21 1.27 1.37 1.37 1.39 1.32 1.32 1.38 1.50 1.78 2.04 2.02 1.82 1.70 1.65 1.63 1.62 1.58 1.48 1.40
4.97 4.85 4.70 4.30 3.84 3.50 3.25 3.16 3.15 2.97 2.94 2.85 2.77 2.48 2.26 2.03 1.84 1.54 1.25 1.07 1.04 1.03 1.03 1.03 1.12 1.30 1.36 1.34 1.30 1.29 1.28 1.33 1.50 1.68 1.76 1.69 1.57 1.56 1.60 1.63 1.63 1.59 1.57
4.21 3.84 3.48 3.17 3.02 2.82 2.61 2.53 2.52 2.48 2.37 2.31 2.31 2.25 2.17 1.97 1.71 1.54 1.36 1.19 1.15 1.07 1.02 1.03 1.09 1.17 1.27 1.31 1.32 1.35 1.33 1.25 1.29 1.32 1.37 1.41 1.43 1.46 1.52 1.59 1.65 1.69 1.67
3.46 2.99 2.73 2.50 2.34 2.16 1.95 1.83 1.81 1.86 1.93 2.01 2.07 2.05 2.01 1.98 1.85 1.76 1.61 1.41 1.33 1.28 1.15 1.10 1.13 1.19 1.30 1.39 1.44 1.63 1.39 1.26 1.24 1.23 1.20 1.21 1.23 1.27 1.35 1.46 1.55 1.61 1.70
3.10 2.64 2.23 2.02 1.80 1.63 1.54 1.49 1.44 1.44 1.51 1.61 1.76 1.81 1.80 1.79 1.75 1.76 1.77 1.65 1.50 1.36 1.21 1.16 1.18 1.24 1.27 1.36 1.48 1.66 1.47 1.39 1.27 1.15 1.08 1.06 1.07 1.10 1.14 1.22 1.32 1.41 1.49
2.52 2.17 1.75 1.43 1.25 1.12 1.06 1.09 1.14 1.19 1.21 1.25 1.34 1.47 1.51 1.50 1.55 1.62 1.69 1.74 1.73 1.54 1.29 1.21 1.27 1.30 1.30 1.30 1.48 1.54 1.32 1.40 1.26 1.17 1.11 1.06 1.01 1.00 1.03 1.09 1.21 1.31 1.30
1.70 1.48 1.25 1.08 0.97 0.92 0.87 0.85 0.86 0.88 0.92 0.98 1.04 1.14 1.26 1.33 1.36 1.43 1.53 1.62 1.66 1.63 1.48 1.30 1.27 1.26 1.25 1.26 1.42 1.14 1.05 1.23 1.18 1.14 1.10 1.02 0.93 0.90 0.89 0.91 0.95 1.02 1.05
1.06 0.99 0.89 0.83 0.78 0.71 0.70 0.72 0.70 0.69 0.78 0.81 0.82 0.88 0.99 1.12 1.20 1.28 1.39 1.45 1.46 1.44 1.43 1.26 1.18 1.18 1.17 1.14 1.26 0.96 0.95 1.13 1.03 0.97 0.94 0.92 0.87 0.82 0.79 0.80 0.83 0.85 0.84
0.78 0.74 0.69 0.66 0.64 0.63 0.61 0.60 0.61 0.59 0.64 0.75 0.83 0.87 0.91 0.96 1.03 1.08 1.12 1.18 1.27 1.33 1.42 1.41 1.27 1.21 1.17 1.12 1.08 0.93 0.85 0.82 0.86 0.90 0.85 0.83 0.78 0.74 0.69 0.64 0.60 0.58 0.58
0.69 0.65 0.62 0.60 0.59 0.60 0.61 0.59 0.57 0.57 0.59 0.65 0.71 0.75 0.76 0.75 0.82 0.90 0.95 0.99 1.05 1.12 1.23 1.34 1.27 1.14 1.08 1.06 1.00 0.93 0.80 0.70 0.68 0.74 0.69 0.65 0.63 0.61 0.57 0.51 0.45 0.43 0.41
0.64 0.59 0.57 0.56 0.57 0.57 0.55 0.56 0.56 0.54 0.53 0.57 0.58 0.59 0.62 0.64 0.66 0.69 0.72 0.77 0.83 0.88 0.97 1.03 1.04 0.98 0.95 0.90 0.88 0.83 0.75 0.74 0.63 0.63 0.57 0.52 0.49 0.46 0.43 0.38 0.35 0.34 0.33
0.61 0.61 0.59 0.55 0.50 0.46 0.42 0.38 0.38 0.38 0.37 0.39 0.41 0.43 0.48 0.55 0.56 0.56 0.55 0.57 0.62 0.72 0.79 0.86 0.87 0.86 0.84 0.78 0.78 0.77 0.72 0.66 0.60 0.49 0.49 0.43 0.38 0.35 0.34 0.33 0.30 0.27 0.26
0.50 0.48 0.43 0.39 0.31 0.25 0.23 0.21 0.23 0.26 0.27 0.28 0.29 0.29 0.31 0.40 0.47 0.47 0.45 0.49 0.57 0.65 0.68 0.72 0.71 0.69 0.69 0.73 0.73 0.66 0.62 0.57 0.53 0.44 0.47 0.44 0.42 0.43 0.46 0.42 0.34 0.28 0.23
0.44 0.35 0.29 0.26 0.22 0.17 0.17 0.15 0.17 0.23 0.27 0.27 0.28 0.29 0.28 0.31 0.35 0.36 0.41 0.51 0.61 0.62 0.65 0.68 0.66 0.66 0.66 0.65 0.64 0.63 0.63 0.63 0.64 0.50 0.50 0.47 0.41 0.46 0.44 0.42 0.36 0.27 0.22
0.44 0.39 0.30 0.24 0.21 0.19 0.16 0.15 0.15 0.22 0.28 0.30 0.31 0.32 0.28 0.27 0.31 0.32 0.37 0.43 0.48 0.51 0.58 0.70 0.75 0.71 0.70 0.71 0.72 0.68 0.70 0.73 0.70 0.60 0.66 0.63 0.45 0.43 0.32 0.27 0.27 0.22 0.20
0.47 0.45 0.38 0.32 0.27 0.18 0.13 0.13 0.14 0.22 0.30 0.30 0.31 0.33 0.34 0.33 0.33 0.35 0.35 0.38 0.44 0.50 0.53 0.57 0.70 0.68 0.64 0.66 0.71 0.73 0.74 0.76 0.74 0.70 0.74 0.75 0.51 0.42 0.31 0.35 0.30 0.20 0.18
0.44 0.41 0.36 0.34 0.34 0.25 0.13 0.11 0.13 0.26 0.35 0.31 0.26 0.25 0.28 0.32 0.33 0.34 0.37 0.46 0.51 0.55 0.47 0.50 0.60 0.66 0.68 0.68 0.65 0.69 0.82 0.94 0.89 0.70 0.66 0.73 0.60 0.47 0.39 0.39 0.34 0.25 0.20
0.44 0.37 0.31 0.31 0.31 0.27 0.16 0.13 0.16 0.27 0.35 0.32 0.28 0.27 0.25 0.25 0.27 0.27 0.36 0.48 0.57 0.58 0.51 0.55 0.68 0.76 0.74 0.80 0.75 0.77 0.94 0.98 0.93 0.87 0.70 0.69 0.66 0.61 0.58 0.43 0.38 0.34 0.32

GEFSMA_prec_meanprecacc_162.txt.gz
Total_Precipitation_Accumulation
1.64 1.73 1.64 1.63 1.52 1.50 1.46 1.29 1.21 1.18 1.09 0.98 0.79 0.75 0.78 0.71 0.78 0.95 1.00 1.03 1.07 1.33 1.69 1.85 1.73 1.50 1.43 1.40 1.38 1.30 1.14 1.03 0.92 0.80 0.70 0.63 0.61 0.61 0.56 0.54 0.53 0.47 0.45
1.86 1.91 1.90 1.90 1.86 1.83 1.91 1.71 1.52 1.59 1.45 1.37 1.22 1.15 1.10 1.09 1.12 1.21 1.37 1.29 1.12 1.21 1.52 1.84 1.94 1.87 1.82 1.75 1.65 1.48 1.34 1.24 1.15 1.08 0.98 0.87 0.79 0.72 0.68 0.66 0.61 0.55 0.52
1.99 2.06 2.23 2.19 2.12 2.10 2.15 2.12 1.97 1.98 1.80 1.68 1.56 1.41 1.37 1.45 1.46 1.41 1.54 1.67 1.44 1.38 1.42 1.57 1.76 1.89 1.96 1.98 1.92 1.78 1.61 1.46 1.37 1.32 1.25 1.14 1.04 0.96 0.90 0.82 0.74 0.71 0.69
2.12 2.34 2.45 2.44 2.41 2.33 2.44 2.55 2.48 2.29 2.17 1.99 1.84 1.60 1.51 1.61 1.66 1.65 1.68 1.81 1.93 1.79 1.69 1.58 1.63 1.74 1.91 2.03 2.07 2.07 1.94 1.74 1.57 1.49 1.44 1.37 1.29 1.17 1.03 0.91 0.86 0.86 0.84
2.53 2.64 2.78 2.87 2.86 2.88 2.87 2.75 2.85 2.64 2.57 2.41 2.10 1.91 1.69 1.63 1.70 1.65 1.72 1.73 1.83 1.87 1.88 1.80 1.68 1.69 1.86 2.12 2.17 2.24 2.23 2.10 1.94 1.77 1.62 1.50 1.46 1.36 1.20 1.09 1.02 0.96 0.92
3.20 3.31 3.29 3.32 3.33 3.37 3.22 3.17 3.16 2.93 2.75 2.70 2.30 2.11 1.94 1.78 1.76 1.72 1.69 1.70 1.65 1.57 1.66 1.75 1.82 1.68 1.80 1.92 2.03 2.18 2.32 2.43 2.32 2.12 1.99 1.86 1.73 1.57 1.35 1.21 1.10 1.03 0.99
4.18 4.24 4.12 4.01 3.86 3.74 3.55 3.42 3.24 3.07 2.83 2.74 2.61 2.28 1.86 1.61 1.59 1.51 1.54 1.65 1.64 1.57 1.59 1.66 1.72 1.66 1.58 1.60 1.64 1.82 2.08 2.38 2.52 2.45 2.31 2.14 1.90 1.73 1.56 1.41 1.28 1.19 1.11
5.06 5.17 5.09 4.88 4.64 4.30 3.85 3.52 3.32 3.16 2.90 2.86 2.81 2.72 2.18 1.79 1.51 1.24 1.30 1.36 1.41 1.49 1.47 1.46 1.54 1.64 1.58 1.53 1.41 1.48 1.66 1.94 2.26 2.48 2.47 2.30 2.12 1.96 1.83 1.70 1.56 1.44 1.32
5.23 5.43 5.41 5.14 4.74 4.18 3.68 3.50 3.40 3.26 3.07 2.97 2.83 2.88 2.48 2.08 1.75 1.35 1.15 1.09 1.16 1.19 1.19 1.24 1.31 1.42 1.42 1.44 1.37 1.38 1.46 1.58 1.90 2.19 2.17 1.98 1.86 1.80 1.77 1.76 1.72 1.62 1.52
5.06 4.96 4.81 4.40 3.93 3.59 3.33 3.24 3.21 3.02 2.98 2.89 2.81 2.53 2.30 2.07 1.88 1.57 1.27 1.10 1.09 1.10 1.10 1.09 1.17 1.34 1.40 1.39 1.35 1.35 1.35 1.42 1.59 1.78 1.88 1.82 1.72 1.70 1.73 1.76 1.76 1.75 1.76
4.28 3.92 3.56 3.26 3.12 2.91 2.70 2.61 2.59 2.53 2.40 2.35 2.36 2.31 2.24 2.02 1.75 1.57 1.40 1.23 1.21 1.13 1.11 1.12 1.18 1.26 1.34 1.37 1.37 1.41 1.39 1.32 1.37 1.40 1.47 1.51 1.55 1.60 1.67 1.74 1.81 1.83 1.83
3.52 3.06 2.81 2.56 2.41 2.23 2.02 1.90 1.88 1.91 1.98 2.04 2.10 2.08 2.04 2.02 1.88 1.79 1.68 1.49 1.37 1.32 1.21 1.16 1.19 1.26 1.39 1.48 1.52 1.70 1.45 1.31 1.29 1.28 1.26 1.28 1.32 1.38 1.49 1.61 1.73 1.81 1.88
3.15 2.69 2.28 2.07 1.83 1.66 1.58 1.52 1.47 1.47 1.55 1.65 1.79 1.84 1.82 1.80 1.77 1.79 1.83 1.70 1.52 1.38 1.25 1.22 1.25 1.30 1.34 1.44 1.56 1.74 1.54 1.46 1.34 1.22 1.14 1.12 1.13 1.16 1.22 1.30 1.42 1.54 1.68
2.57 2.22 1.80 1.48 1.28 1.14 1.08 1.10 1.15 1.21 1.23 1.28 1.37 1.50 1.53 1.52 1.57 1.64 1.72 1.78 1.77 1.56 1.31 1.24 1.31 1.35 1.35 1.36 1.56 1.63 1.40 1.47 1.32 1.24 1.18 1.13 1.07 1.05 1.07 1.13 1.27 1.39 1.42
1.75 1.54 1.31 1.13 1.01 0.95 0.89 0.86 0.87 0.89 0.95 1.01 1.08 1.18 1.29 1.35 1.37 1.45 1.55 1.65 1.70 1.66 1.49 1.31 1.30 1.30 1.29 1.31 1.47 1.19 1.11 1.29 1.22 1.18 1.15 1.08 0.99 0.96 0.94 0.95 0.99 1.07 1.12
1.11 1.05 0.95 0.89 0.83 0.75 0.73 0.74 0.72 0.70 0.79 0.83 0.84 0.92 1.03 1.14 1.22 1.30 1.41 1.48 1.50 1.48 1.45 1.28 1.20 1.21 1.21 1.19 1.31 1.00 0.98 1.16 1.06 1.00 0.97 0.96 0.92 0.88 0.86 0.86 0.87 0.89 0.89
0.83 0.80 0.76 0.73 0.71 0.68 0.65 0.62 0.63 0.61 0.65 0.76 0.84 0.89 0.93 0.99 1.05 1.09 1.14 1.20 1.30 1.37 1.45 1.44 1.30 1.24 1.22 1.18 1.13 0.97 0.88 0.84 0.89 0.94 0.89 0.87 0.83 0.79 0.77 0.73 0.66 0.62 0.61
0.74 0.72 0.70 0.69 0.69 0.69 0.68 0.65 0.61 0.59 0.61 0.67 0.72 0.76 0.77 0.76 0.83 0.91 0.96 0.99 1.06 1.14 1.26 1.37 1.30 1.17 1.11 1.10 1.06 0.98 0.84 0.73 0.70 0.78 0.75 0.71 0.70 0.68 0.64 0.60 0.56 0.50 0.46
0.71 0.66 0.64 0.64 0.66 0.66 0.62 0.61 0.59 0.57 0.56 0.58 0.60 0.60 0.63 0.64 0.67 0.70 0.73 0.78 0.84 0.89 0.98 1.05 1.07 1.01 0.97 0.93 0.94 0.89 0.80 0.78 0.67 0.68 0.62 0.58 0.56 0.54 0.51 0.45 0.43 0.45 0.43
0.66 0.67 0.65 0.61 0.57 0.52 0.46 0.43 0.42 0.42 0.39 0.41 0.41 0.43 0.49 0.55 0.57 0.58 0.56 0.58 0.63 0.73 0.80 0.87 0.89 0.88 0.86 0.81 0.82 0.83 0.77 0.70 0.64 0.53 0.54 0.48 0.44 0.41 0.41 0.40 0.37 0.36 0.36
0.53 0.52 0.49 0.44 0.36 0.30 0.27 0.25 0.26 0.28 0.29 0.29 0.30 0.29 0.32 0.40 0.48 0.49 0.47 0.50 0.57 0.65 0.69 0.73 0.72 0.70 0.71 0.75 0.77 0.71 0.65 0.60 0.55 0.47 0.51 0.48 0.46 0.46 0.50 0.48 0.42 0.37 0.35
0.49 0.40 0.34 0.32 0.27 0.21 0.21 0.19 0.20 0.26 0.29 0.29 0.30 0.30 0.30 0.32 0.36 0.37 0.42 0.53 0.63 0.64 0.66 0.69 0.67 0.68 0.68 0.67 0.67 0.66 0.66 0.66 0.66 0.52 0.52 0.50 0.46 0.51 0.49 0.46 0.42 0.36 0.32
0.48 0.43 0.35 0.29 0.28 0.24 0.20 0.17 0.17 0.24 0.30 0.31 0.32 0.33 0.29 0.28 0.32 0.33 0.38 0.45 0.50 0.52 0.60 0.71 0.77 0.73 0.72 0.73 0.75 0.71 0.72 0.75 0.72 0.62 0.69 0.65 0.49 0.46 0.37 0.33 0.32 0.27 0.28
0.50 0.47 0.41 0.36 0.32 0.23 0.17 0.14 0.15 0.23 0.31 0.31 0.32 0.33 0.34 0.34 0.34 0.36 0.36 0.39 0.45 0.51 0.54 0.60 0.73 0.71 0.65 0.68 0.73 0.77 0.79 0.79 0.77 0.73 0.77 0.79 0.55 0.46 0.35 0.40 0.37 0.25 0.22
0.46 0.44 0.40 0.38 0.38 0.29 0.15 0.12 0.14 0.26 0.36 0.33 0.27 0.26 0.29 0.32 0.34 0.34 0.38 0.47 0.52 0.56 0.49 0.52 0.61 0.68 0.70 0.70 0.67 0.71 0.86 0.98 0.93 0.74 0.70 0.76 0.64 0.52 0.43 0.43 0.38 0.30 0.24
0.45 0.39 0.34 0.34 0.34 0.30 0.19 0.15 0.17 0.27 0.36 0.33 0.30 0.28 0.26 0.27 0.28 0.28 0.36 0.49 0.59 0.59 0.53 0.56 0.70 0.79 0.77 0.82 0.78 0.79 0.96 1.01 0.96 0.89 0.72 0.73 0.70 0.65 0.62 0.46 0.41 0.38 0.37